GFSFLT2_925_thetae_000.txt.gz
Theta_e
321 322 322 322 322 320 321 322 326 330 328 329 331 333 339 341 343 343 346 347 348 346 346 346 347 348 349 350 351 351 352 354
320 323 322 322 320 324 319 326 331 327 328 332 331 334 333 339 342 342 343 347 347 348 347 347 347 349 350 350 351 351 352 353
319 320 321 322 322 319 319 320 324 326 327 324 328 332 334 337 339 340 340 345 345 348 349 348 348 349 350 351 352 353 352 353
318 319 320 321 321 321 325 322 320 322 324 324 327 328 334 335 338 334 338 343 343 347 349 349 348 349 350 351 352 353 352 351
318 317 321 322 321 318 317 318 323 326 326 325 327 331 335 335 334 334 338 340 342 344 347 348 347 349 350 351 352 352 351 350
321 320 319 323 324 321 320 322 322 324 325 327 332 334 336 337 334 333 336 339 341 342 343 344 344 346 349 350 351 351 349 348
321 317 322 323 324 323 323 322 325 326 324 327 331 332 333 337 336 335 333 334 339 341 341 341 342 343 346 348 349 350 348 345
321 318 320 322 322 325 324 324 323 324 324 323 328 330 332 334 336 337 336 334 334 337 338 339 340 341 345 347 348 349 347 345
321 318 318 321 321 321 324 323 324 325 326 323 329 331 332 331 333 336 335 335 333 332 334 335 337 340 343 346 348 349 347 345
322 321 323 321 326 323 326 334 332 331 326 326 328 330 329 328 330 331 332 334 332 331 333 335 336 338 341 344 347 349 347 346
320 320 323 335 334 334 333 335 333 335 333 332 329 330 330 327 328 329 331 333 335 334 334 335 337 339 341 344 346 348 347 345
324 324 333 332 333 334 333 335 331 332 331 330 329 331 331 326 327 327 328 330 332 336 337 340 341 343 344 344 346 346 345 345
334 334 333 334 333 333 335 331 331 330 330 331 331 330 329 329 330 331 334 336 338 340 342 342 342 345 345 344 344 344 344 343
337 337 339 331 334 334 334 329 330 331 330 330 329 329 332 333 333 333 333 335 338 340 342 344 345 345 342 341 341 342 342 341
336 336 331 330 329 328 329 329 329 328 328 333 333 334 335 335 335 335 336 337 342 343 342 342 342 342 340 339 340 340 339 339
336 333 331 327 326 325 326 327 327 327 329 332 334 337 337 337 337 336 336 337 340 340 338 336 337 338 339 338 339 339 337 334
334 330 329 325 326 326 325 324 323 323 325 327 328 329 329 331 338 336 334 336 338 337 336 335 336 338 338 339 339 338 334 333
333 329 328 324 323 324 322 321 321 321 320 320 321 323 325 324 329 335 335 337 336 336 337 336 337 338 337 338 338 337 334 332
325 321 322 321 320 319 318 317 317 318 318 318 318 318 320 322 324 335 337 338 336 335 336 335 334 334 334 334 335 333 332 328

GFSFLT2_925_thetae_003.txt.gz
Theta_e
322 325 327 329 331 331 334 330 334 336 341 336 338 340 340 343 346 349 348 349 349 349 348 349 349 350 351 351 351 353 354 354
323 323 326 327 328 330 331 339 337 334 336 334 340 341 343 344 346 348 349 350 350 351 350 349 350 350 351 351 352 352 354 355
322 323 324 325 327 329 331 332 336 336 334 337 344 347 343 344 345 347 350 351 352 352 349 350 350 350 351 352 352 353 354 354
323 323 323 325 327 330 332 336 331 333 332 333 336 338 341 341 342 344 349 352 351 351 350 349 350 350 351 352 352 353 353 354
327 326 324 324 325 328 329 331 339 333 331 335 333 335 337 341 343 344 347 349 350 350 352 351 351 352 351 352 352 353 353 354
328 327 325 324 325 327 328 330 331 332 331 334 336 339 340 341 344 344 344 349 350 351 355 354 353 353 352 352 352 353 353 354
331 329 326 324 323 326 329 331 332 330 333 335 341 344 344 344 346 343 344 347 350 351 356 355 354 353 352 352 352 353 354 354
327 328 326 325 324 325 328 327 330 330 334 333 337 339 341 342 346 345 344 344 348 349 350 351 350 350 350 351 352 353 354 353
332 325 324 327 326 326 329 330 330 332 333 336 334 337 341 342 345 347 346 344 345 347 348 347 347 347 347 348 350 351 352 351
336 330 331 325 326 326 327 327 329 330 333 334 337 338 338 336 341 344 345 344 343 340 342 343 342 343 345 347 350 351 351 350
334 332 332 330 333 328 326 328 338 336 338 335 332 336 338 334 334 338 339 342 343 339 340 341 340 342 345 347 349 350 350 350
338 338 336 339 338 336 337 334 337 338 339 338 336 337 341 335 335 337 339 342 342 342 341 343 343 343 346 347 348 350 350 349
343 342 335 339 337 336 338 338 336 336 337 337 340 341 337 339 343 342 341 343 343 344 344 345 347 347 349 349 350 350 349 348
345 346 342 335 338 341 340 336 336 338 338 338 338 339 339 340 342 343 344 345 346 347 349 347 348 349 350 350 349 348 348 344
342 344 335 332 335 335 336 336 336 339 337 338 339 340 341 343 344 345 348 348 346 346 348 347 347 348 347 345 343 344 344 343
341 340 333 332 331 332 334 336 336 338 338 339 339 341 346 346 345 344 345 347 348 349 348 346 344 343 344 342 344 343 342 341
340 336 331 329 329 329 330 330 330 331 334 335 337 336 340 348 348 347 347 345 347 348 348 347 344 344 343 343 343 343 343 343
338 334 334 331 327 325 325 325 326 328 328 328 332 335 335 339 345 347 347 347 347 347 345 343 343 342 342 342 343 343 342 341
329 327 325 322 321 322 323 322 323 323 325 323 323 326 329 332 332 336 337 341 347 346 344 343 342 341 341 340 339 339 337 337

GFSFLT2_925_thetae_009.txt.gz
Theta_e
327 326 326 328 332 333 336 338 339 339 339 340 341 341 339 339 338 338 345 349 348 347 348 351 351 355 357 360 364 365 362 365
327 326 325 326 329 333 338 344 342 339 339 340 341 340 338 339 338 338 341 348 349 348 347 348 350 353 356 359 363 362 362 364
330 328 326 325 327 331 334 336 340 340 340 338 342 340 339 338 337 338 340 346 349 348 347 347 348 350 354 357 359 362 361 361
331 330 328 327 327 328 336 341 336 341 338 337 337 338 337 338 338 337 339 344 348 349 348 348 349 348 350 352 354 359 360 361
334 331 329 328 327 328 328 334 344 341 338 337 338 337 337 337 337 339 339 342 347 349 350 351 349 349 348 351 350 353 357 360
334 334 330 328 327 327 328 331 333 335 337 338 337 337 336 336 336 339 340 346 346 350 353 355 352 352 350 349 348 350 354 355
332 332 332 330 326 326 326 328 332 332 335 336 340 337 336 336 336 336 337 348 350 352 360 362 358 356 354 351 351 351 354 355
333 330 330 330 330 328 327 326 328 329 331 333 335 338 337 335 336 336 336 339 351 353 355 363 362 361 359 356 356 354 358 358
339 334 334 334 330 330 330 329 328 328 329 330 333 337 338 337 336 337 338 339 349 353 356 360 357 360 361 360 357 358 360 362
336 338 339 334 333 332 331 330 330 329 329 329 335 337 336 335 335 339 341 341 345 350 355 358 356 357 358 359 362 363 364 363
339 340 342 339 339 340 341 335 331 332 330 329 330 331 336 336 335 337 338 339 345 350 353 359 357 359 361 360 361 362 362 363
340 340 341 336 341 340 338 338 333 332 331 329 329 332 336 337 338 342 342 339 349 350 353 357 358 357 359 358 359 360 360 360
337 340 337 341 339 339 339 339 347 345 343 337 330 336 337 339 339 343 343 349 351 352 358 358 356 355 358 356 356 355 356 357
336 336 337 341 340 341 347 345 345 346 344 345 333 333 345 346 345 345 347 351 350 355 355 353 353 355 357 357 355 356 356 357
334 337 346 343 342 342 341 344 344 344 344 343 341 346 348 349 351 352 351 352 350 350 353 350 353 354 358 359 357 357 357 358
343 345 343 342 341 341 342 343 342 343 344 344 346 348 349 350 349 348 347 351 348 350 355 356 354 354 360 359 358 358 356 353
346 344 342 341 340 340 341 341 342 344 347 345 347 348 349 350 349 348 348 349 348 350 353 354 354 356 354 355 356 354 354 353
346 342 342 337 335 336 337 337 338 341 341 345 347 348 349 349 348 347 348 347 350 349 352 353 354 354 353 353 353 352 351 350
341 336 330 328 328 327 329 331 331 332 334 334 334 335 336 339 341 341 346 346 347 348 350 352 353 353 351 351 352 351 347 346

GFSFLT2_925_thetae_012.txt.gz
Theta_e
328 328 326 327 328 330 333 335 338 339 338 338 342 347 344 343 342 345 351 351 350 353 352 355 354 356 358 364 367 368 367 366
330 328 328 327 328 328 331 339 342 339 343 344 343 349 345 345 343 341 340 351 351 350 353 354 355 355 358 361 367 369 368 367
331 330 328 326 327 327 329 333 339 343 342 343 348 351 349 346 343 341 341 345 350 350 350 353 355 356 358 359 365 368 368 367
330 331 329 328 328 327 329 337 334 337 340 338 345 342 345 342 342 341 341 344 347 351 350 351 353 354 357 360 363 366 367 366
329 331 332 329 327 327 327 329 335 338 338 338 340 340 346 343 342 344 344 347 348 349 351 351 351 353 356 358 360 365 365 365
332 333 332 333 330 329 328 328 331 332 338 338 343 344 342 346 342 343 347 350 352 350 354 352 351 352 354 357 358 361 363 364
330 329 331 332 330 330 330 331 332 332 333 338 340 344 341 343 344 343 347 351 352 354 358 355 354 353 353 353 354 355 360 362
332 331 331 332 332 330 329 330 331 331 331 333 335 338 341 341 340 344 344 345 354 356 364 365 358 355 353 352 352 353 355 359
335 331 332 334 333 333 331 328 329 330 332 333 334 337 342 346 343 345 344 344 354 357 358 362 360 357 354 352 353 352 355 357
335 335 338 333 332 331 331 331 331 332 333 333 334 335 336 336 341 342 343 343 344 348 357 357 359 358 357 355 354 354 359 359
338 336 336 334 335 336 334 333 334 334 335 332 333 333 335 334 335 337 338 347 344 338 354 356 358 357 361 359 357 362 360 368
337 339 342 340 336 340 338 341 340 342 339 336 336 334 333 336 335 335 335 338 344 339 355 361 360 359 361 364 362 360 365 365
337 335 335 339 339 337 340 341 346 345 345 344 343 346 348 342 351 343 337 340 345 356 361 363 361 362 364 364 366 364 366 366
341 343 346 340 340 342 347 344 343 342 342 343 347 345 345 347 348 351 345 346 359 364 367 365 362 364 367 367 366 365 365 366
333 335 342 346 347 344 343 343 344 343 341 341 342 344 343 350 346 348 347 360 356 365 366 363 364 364 366 364 361 362 362 364
333 338 344 342 340 341 342 344 344 351 353 347 343 344 347 351 353 358 358 360 359 360 364 364 362 362 364 363 362 363 363 361
337 347 346 345 345 343 343 347 349 348 348 351 352 354 354 358 359 359 358 359 358 360 363 364 365 363 362 363 362 358 356 354
352 339 348 342 341 340 341 342 342 342 341 341 344 344 345 352 354 356 357 356 357 358 359 359 358 359 360 359 356 355 354 352
333 330 331 332 330 334 335 334 335 335 336 337 339 336 338 342 343 346 348 352 355 357 357 357 356 355 355 356 356 354 351 350

GFSFLT2_925_thetae_015.txt.gz
Theta_e
327 327 324 323 322 322 323 328 330 332 331 332 342 341 343 343 346 346 342 342 344 345 347 350 351 357 358 363 362 363 363 362
328 326 325 323 324 322 323 325 330 331 333 337 342 343 343 344 342 343 342 343 344 344 347 350 352 355 357 363 363 364 362 364
327 326 325 325 322 321 321 324 327 332 332 332 337 344 344 342 342 342 343 342 345 346 348 351 352 355 357 361 364 364 364 363
325 326 326 325 323 321 323 324 326 325 328 330 331 342 343 342 340 339 337 343 345 346 347 352 352 353 357 363 364 364 365 365
326 324 325 326 325 323 322 321 323 328 329 327 328 335 338 341 342 339 338 339 346 345 348 352 353 352 356 361 365 365 366 366
326 326 326 330 327 326 323 322 323 323 323 324 330 336 334 337 339 338 342 338 342 346 349 350 353 353 354 358 364 366 367 367
326 327 327 326 328 327 325 323 324 323 323 323 327 339 337 336 338 336 338 340 343 346 346 349 352 353 354 356 358 364 366 366
329 329 326 327 328 330 326 326 326 325 326 326 328 333 342 339 337 333 334 346 347 347 346 347 348 351 353 355 357 360 364 364
328 330 330 330 327 328 330 329 328 327 326 325 326 327 332 338 337 334 335 342 345 345 348 347 348 350 352 355 356 358 360 363
327 331 334 331 330 331 331 332 329 328 327 329 328 329 332 332 331 334 336 339 345 347 351 351 351 350 352 353 355 356 356 360
329 329 329 331 330 332 331 331 329 338 336 331 329 328 328 330 330 328 330 332 332 344 349 357 353 351 351 351 353 353 354 356
327 329 330 330 333 339 338 340 346 344 344 343 339 333 327 339 337 330 331 330 330 334 344 352 357 354 352 351 353 351 352 355
330 326 328 332 336 335 338 346 346 343 343 343 343 342 341 341 340 344 341 330 332 339 349 352 357 357 354 353 352 355 352 361
335 335 337 342 340 340 343 346 342 341 341 342 342 340 342 340 340 342 342 349 337 351 351 356 358 360 360 358 356 356 364 366
332 341 345 337 334 332 337 342 345 350 355 348 344 345 340 345 343 343 353 361 362 363 364 366 362 363 365 368 364 365 368 368
341 332 338 340 334 340 350 348 349 349 350 349 349 351 354 354 354 357 357 360 361 362 362 363 366 366 366 365 365 365 364 361
340 335 338 345 346 345 347 345 342 342 343 343 343 343 343 345 351 354 354 355 360 362 363 363 364 364 363 363 362 360 357 355
341 331 334 331 333 341 339 339 338 336 335 335 336 336 335 336 337 340 340 356 360 360 361 362 362 361 359 359 358 354 351 350
334 330 328 327 326 329 330 331 332 333 332 333 333 334 333 333 331 332 334 347 356 356 356 357 358 357 356 355 355 352 350 348

GFSFLT2_925_thetae_018.txt.gz
Theta_e
322 323 324 322 317 318 318 322 324 327 328 328 333 342 344 343 342 342 340 340 341 342 345 346 347 352 354 355 354 356 356 356
322 322 322 320 319 320 314 320 322 323 328 330 330 335 339 343 344 343 342 342 342 340 344 347 347 352 354 356 356 357 357 356
323 321 324 323 321 318 317 316 321 322 324 324 327 330 338 343 344 344 343 341 342 341 343 346 348 352 355 357 356 357 359 358
322 321 323 324 322 317 320 319 319 322 324 328 326 327 337 342 344 344 343 342 340 341 341 345 349 351 355 358 357 357 359 359
320 319 320 322 322 321 313 315 320 324 323 322 322 330 338 338 338 340 342 338 337 339 342 344 348 350 354 357 359 359 359 360
325 324 321 321 323 321 321 321 321 321 321 321 321 327 329 332 338 336 338 336 336 341 342 345 348 350 353 355 360 360 361 360
319 323 323 324 324 324 322 323 322 323 318 318 318 319 323 326 335 336 335 335 341 340 343 346 349 350 352 355 358 360 361 362
324 324 324 325 325 325 325 324 322 320 320 318 319 319 325 331 332 334 334 333 336 342 345 345 349 350 351 354 359 361 362 362
322 323 324 325 326 325 324 324 323 321 320 320 322 323 324 326 332 334 330 333 339 343 344 346 349 350 351 354 358 362 362 363
321 323 328 326 326 325 323 325 325 322 322 322 323 323 322 323 330 332 330 331 339 342 343 346 349 351 351 352 356 361 362 363
323 325 324 329 328 326 325 326 327 325 325 324 324 324 326 327 324 323 327 331 331 341 343 345 347 350 351 352 354 356 360 361
322 325 328 325 329 334 330 335 342 337 337 335 326 325 323 334 335 328 322 324 327 339 348 345 345 347 349 351 353 355 356 359
323 327 322 327 332 332 335 333 343 339 338 336 337 329 333 337 335 337 326 325 327 327 340 351 347 347 348 350 352 353 355 356
334 329 333 335 335 329 331 342 339 338 337 337 336 337 336 336 334 339 337 338 329 323 326 339 351 348 347 348 350 352 353 353
336 335 334 336 333 339 345 349 349 348 347 347 350 351 352 350 350 342 349 353 355 328 330 336 347 351 348 348 349 350 350 354
332 335 335 333 340 344 342 342 340 340 341 342 344 345 344 344 343 346 346 345 354 357 357 357 354 353 351 351 352 355 357 363
337 333 333 331 333 338 339 337 336 336 336 336 337 337 337 335 336 336 333 328 330 342 355 358 362 362 362 358 362 363 362 361
338 331 329 330 330 335 334 334 332 334 335 334 333 332 331 331 330 331 332 331 330 325 326 325 327 359 362 361 359 358 355 352
331 330 327 327 325 325 325 327 330 329 329 331 330 331 331 330 329 332 335 330 331 332 331 332 330 330 356 355 356 355 351 344

GFSFLT2_925_thetae_021.txt.gz
Theta_e
324 322 321 319 320 318 316 319 319 322 325 325 328 332 336 340 341 341 341 341 342 342 342 344 345 347 350 349 350 354 354 354
321 322 321 322 317 320 311 320 322 319 323 324 327 329 334 340 339 339 340 340 341 341 342 343 344 345 349 350 350 351 354 354
318 318 322 319 320 316 314 314 321 320 321 320 326 327 331 336 341 340 339 339 340 341 341 342 344 345 348 351 350 350 353 354
318 319 320 320 321 316 319 318 314 319 321 323 323 324 325 330 335 339 340 339 339 340 340 341 344 344 348 350 351 351 352 353
316 317 319 319 319 320 316 315 322 319 320 318 321 322 328 330 333 336 338 339 338 335 336 339 343 345 349 351 352 352 353 354
319 318 319 319 321 321 320 320 323 322 320 321 321 320 323 333 334 336 339 339 336 334 336 339 343 346 348 351 353 353 354 355
317 318 319 319 319 322 320 322 322 323 317 318 318 318 319 321 328 333 338 339 335 338 336 338 342 346 348 351 354 354 355 356
318 319 321 322 320 321 322 322 320 320 318 316 318 317 318 318 320 331 333 339 337 338 338 339 341 345 347 351 353 355 355 356
319 318 319 322 322 322 322 321 321 322 320 317 318 317 317 318 321 326 331 332 330 336 337 338 341 345 346 350 352 356 357 357
317 317 325 322 322 323 322 322 320 320 320 319 320 320 319 319 322 326 328 328 328 331 332 337 341 345 346 349 352 355 357 358
319 320 322 323 325 322 321 322 322 321 320 320 319 321 320 320 319 321 324 327 327 332 335 338 341 345 347 349 351 356 357 358
317 322 325 323 336 336 322 325 332 323 323 323 320 321 323 320 323 322 321 322 327 333 338 339 342 345 348 348 351 356 357 358
319 321 321 333 338 337 329 326 338 329 326 324 324 322 323 326 333 331 328 322 323 330 339 340 343 347 348 348 350 353 356 358
320 325 326 336 340 344 339 340 338 336 335 334 337 343 341 344 338 343 350 352 349 324 322 338 342 345 347 348 350 351 353 356
327 326 336 334 335 338 340 340 341 344 345 347 350 349 346 344 344 336 337 345 352 352 344 339 332 344 343 347 349 350 352 354
332 334 337 336 334 336 336 337 337 338 340 341 341 338 335 336 336 332 329 329 337 341 344 337 341 349 347 345 345 348 350 352
333 333 337 336 331 331 332 332 334 333 333 333 332 332 330 331 331 330 330 328 328 336 336 333 335 337 340 351 350 346 348 350
335 331 332 331 328 326 330 330 329 331 332 331 331 331 331 331 330 331 331 330 330 330 331 333 333 335 340 346 357 351 349 354
331 327 326 326 325 326 327 327 328 329 328 329 328 329 329 330 330 332 340 339 337 332 333 335 335 333 334 335 354 359 358 351

GFSFLT2_925_thetae_024.txt.gz
Theta_e
320 319 321 318 320 316 315 316 317 318 319 323 325 324 334 337 337 338 340 343 345 345 344 344 345 346 348 349 349 349 349 349
322 321 319 317 315 320 312 322 321 319 319 324 325 328 329 335 338 338 338 340 342 342 343 343 344 346 347 349 349 349 350 350
318 321 324 317 317 314 316 314 319 318 320 317 323 324 325 330 336 337 338 338 339 340 341 342 343 344 347 348 349 349 351 351
317 317 319 323 321 314 320 318 312 315 320 318 318 322 324 326 333 336 336 337 339 339 340 341 341 343 345 348 348 348 351 352
316 317 317 317 321 317 319 315 320 319 322 319 317 319 321 323 326 330 336 337 336 337 338 339 340 342 343 346 348 348 349 352
318 318 317 318 318 317 319 322 322 321 321 319 319 319 320 322 326 327 331 334 336 336 337 339 340 341 343 345 347 348 348 350
316 317 318 318 319 318 317 320 321 322 322 321 319 319 320 319 326 329 333 336 335 336 336 336 339 341 343 345 347 349 349 349
317 318 318 318 319 320 320 318 319 320 319 316 318 317 318 319 320 323 329 333 336 336 336 337 339 342 343 345 348 349 350 350
318 317 318 320 319 319 319 318 319 320 320 319 317 317 318 319 318 319 321 324 333 336 336 336 338 341 343 345 348 350 351 351
317 316 321 318 317 319 320 320 319 320 319 320 321 321 319 318 320 319 320 325 329 333 335 336 337 339 341 344 348 351 351 352
316 318 317 317 329 338 338 330 320 320 320 319 320 320 320 318 317 319 320 322 325 328 331 335 336 337 341 344 349 351 353 353
314 320 322 320 336 335 337 335 323 321 321 321 318 319 321 321 319 319 319 320 323 325 327 329 333 338 342 344 348 350 353 354
314 319 318 318 336 337 330 335 341 342 337 321 320 323 325 326 330 334 330 328 322 328 331 334 335 339 343 344 347 349 351 354
314 319 320 332 338 348 339 339 339 341 339 320 330 343 346 345 345 348 350 352 347 331 329 330 339 341 344 345 346 348 351 354
314 316 319 333 336 334 336 336 337 337 340 345 346 344 341 338 334 333 340 344 349 345 340 342 345 343 340 343 345 347 350 353
319 322 322 334 333 332 332 333 335 335 335 337 337 335 333 332 331 330 329 329 340 340 336 333 340 345 346 351 350 346 347 350
319 319 331 333 328 328 330 331 332 332 332 332 334 334 334 335 335 335 335 332 329 331 333 332 334 334 334 339 353 356 347 346
323 320 329 330 326 327 329 329 331 332 333 331 332 333 334 333 335 338 336 334 334 335 335 334 334 336 338 337 334 352 356 344
322 322 325 326 326 325 328 329 330 331 331 332 331 333 335 334 335 334 336 337 335 332 338 336 337 337 334 336 336 344 356 350

GFSFLT2_925_thetae_027.txt.gz
Theta_e
323 323 324 324 327 324 323 322 324 325 326 327 328 330 334 339 340 347 350 351 351 353 352 351 352 350 350 350 351 351 351 351
323 324 323 323 324 324 324 324 324 325 327 328 333 332 332 335 339 341 342 348 350 352 351 350 349 350 350 350 351 352 352 351
325 325 325 322 324 324 325 324 324 323 323 328 333 337 335 334 335 338 340 342 345 349 350 350 348 349 350 351 352 352 352 352
325 325 325 325 325 325 326 328 325 325 324 325 329 331 333 333 334 337 341 343 343 344 346 347 349 348 349 350 351 352 352 352
327 325 322 326 326 325 326 326 328 325 325 326 326 327 329 330 332 335 338 341 344 343 346 348 348 348 348 349 350 351 352 353
329 327 322 324 322 326 325 328 327 328 326 326 327 327 329 331 332 333 336 343 344 344 348 347 346 347 347 348 349 350 351 352
319 318 319 321 322 322 323 326 330 327 329 327 327 329 330 330 332 332 334 337 340 344 349 351 347 347 346 347 349 349 351 352
317 316 319 320 321 321 322 323 323 324 325 326 325 329 331 331 332 335 332 335 340 346 346 348 349 347 346 347 348 350 351 351
316 317 316 321 321 322 322 322 323 325 324 324 325 326 328 331 333 335 334 335 337 344 346 347 345 346 346 347 347 350 351 352
313 314 319 320 321 321 323 324 323 323 324 325 327 329 331 331 332 334 334 334 337 333 339 344 342 342 345 346 348 350 351 352
312 315 317 317 319 332 336 328 332 330 325 325 325 327 331 329 329 332 334 334 334 331 333 339 342 343 345 348 350 351 352 353
312 312 316 320 319 322 336 330 342 343 341 331 325 328 329 333 329 328 328 330 332 330 333 336 342 342 345 348 350 353 353 353
312 313 313 316 321 339 336 332 343 344 344 346 346 330 335 333 331 333 334 331 328 329 333 338 338 339 347 347 351 351 352 354
313 312 312 315 323 323 334 341 342 344 343 343 346 345 332 342 352 357 357 352 330 334 340 345 345 343 348 352 350 351 352 354
315 313 315 318 324 333 339 342 342 342 341 339 344 347 342 351 354 356 357 354 349 348 349 348 349 349 351 351 350 352 353 355
313 312 315 315 319 320 334 339 339 338 336 338 347 346 345 343 343 347 350 351 346 345 347 348 349 351 352 354 354 352 355 356
315 315 316 318 319 319 325 336 336 336 337 339 341 341 341 342 342 340 340 340 342 344 344 343 343 342 341 341 353 359 354 353
314 314 317 322 318 323 331 336 336 336 339 339 339 336 335 340 342 341 341 341 341 341 340 340 341 341 340 340 339 346 351 353
313 313 316 320 322 328 332 334 334 336 335 338 336 337 336 337 336 336 339 339 340 343 343 343 343 343 343 343 342 343 344 347

GFSFLT2_925_thetae_030.txt.gz
Theta_e
325 326 326 328 329 326 326 326 327 327 328 329 331 333 334 334 336 337 347 352 353 353 353 353 354 354 355 355 358 358 357 358
325 325 326 327 327 327 326 329 329 326 328 329 331 332 334 334 336 338 345 351 352 353 353 353 354 354 355 356 357 358 357 357
326 326 326 326 327 327 327 327 328 328 328 330 330 332 333 334 336 338 343 349 350 351 351 352 353 354 355 356 357 357 357 358
328 326 326 327 327 328 328 331 328 329 328 328 328 329 332 333 335 337 340 342 344 347 349 350 352 353 354 355 355 356 357 359
331 329 328 328 327 328 328 329 333 330 328 329 329 330 333 334 334 335 336 340 343 343 345 349 350 351 352 354 354 354 357 357
332 331 329 330 328 328 328 331 330 331 330 329 328 330 329 330 332 333 336 338 340 342 344 346 348 352 354 351 352 352 354 356
330 325 325 329 328 329 330 330 331 330 331 330 330 330 330 331 331 332 334 335 338 346 347 350 349 352 355 352 351 352 355 355
325 323 323 325 326 327 328 330 330 330 331 330 330 330 331 331 331 331 332 331 332 338 344 348 350 351 351 355 352 352 355 356
326 324 323 326 326 326 327 327 328 330 330 329 329 329 330 330 330 330 332 333 334 337 340 346 348 349 350 354 353 353 355 358
322 323 326 325 326 326 326 327 327 327 328 328 328 329 329 329 330 330 331 332 334 334 335 339 343 340 347 349 353 355 357 358
320 322 323 323 322 323 326 328 327 327 328 328 328 328 329 328 329 331 333 334 334 333 333 334 336 339 341 348 351 354 357 359
316 320 323 322 322 322 327 330 329 332 335 335 339 332 330 330 330 330 332 333 333 331 332 334 338 340 343 347 350 355 356 358
314 316 318 320 323 331 329 343 339 338 339 342 346 343 341 340 340 338 337 336 334 335 335 336 341 343 345 347 350 353 354 354
312 314 314 314 316 320 330 333 335 337 337 339 341 342 346 347 347 343 340 345 348 342 336 336 343 342 346 355 351 353 354 355
312 313 314 316 315 319 322 323 327 335 339 341 342 343 346 349 349 339 344 349 351 338 341 349 351 348 349 352 352 352 355 357
313 312 315 316 316 317 317 319 322 324 333 339 342 344 349 350 347 349 353 357 354 349 350 354 356 356 357 357 355 355 356 357
316 316 315 313 313 314 317 317 318 320 328 336 341 346 349 347 348 351 351 349 350 352 353 352 352 352 353 357 361 357 358 359
315 314 315 315 315 315 315 319 320 325 328 334 341 343 344 347 348 347 348 347 347 347 347 347 346 346 346 346 348 351 355 355
315 314 314 315 316 316 320 322 324 327 330 338 338 339 340 342 341 340 345 346 348 348 348 348 348 347 342 344 348 349 349 349

GFSFLT2_925_thetae_036.txt.gz
Theta_e
329 327 328 328 328 327 327 328 328 328 329 330 334 335 336 336 341 344 346 348 354 356 356 353 351 353 354 358 362 363 361 363
329 328 327 328 329 328 329 333 335 331 335 333 334 336 337 338 338 342 344 347 353 355 357 354 352 352 353 357 361 363 363 362
330 329 329 328 331 329 328 329 332 335 331 336 338 337 338 338 339 341 344 347 351 356 355 356 354 354 354 355 361 363 364 364
333 331 329 329 330 331 331 335 331 333 333 333 336 337 337 337 339 340 343 348 349 353 355 357 357 355 355 356 359 363 365 364
334 334 331 330 329 330 331 330 337 334 332 333 334 333 338 337 340 341 345 345 348 352 354 357 357 357 357 357 357 362 364 365
336 336 335 333 330 330 330 333 333 333 334 333 333 333 336 339 340 341 346 346 349 352 354 356 356 358 358 358 358 358 363 365
332 334 334 330 329 330 332 334 335 333 333 336 338 337 337 337 341 343 347 347 351 352 356 357 357 358 358 358 358 358 359 363
334 334 334 335 331 330 330 330 332 332 333 335 336 338 338 340 340 342 342 342 343 347 348 354 359 360 358 358 359 359 359 361
333 333 334 336 334 331 330 330 331 334 336 336 337 337 338 337 336 335 334 334 335 340 344 350 348 358 361 360 359 360 360 362
330 333 338 335 333 332 333 331 331 333 335 336 340 339 337 335 334 335 335 337 342 336 340 342 342 344 352 360 359 359 362 362
329 332 334 334 333 333 332 333 332 333 334 334 333 333 334 332 332 333 337 339 340 334 335 338 342 343 348 351 362 363 361 363
325 330 333 333 331 330 331 333 333 331 332 332 332 332 345 345 343 344 345 348 351 345 345 337 342 336 354 354 358 363 363 361
322 325 329 327 326 328 333 344 339 339 340 337 338 346 344 342 343 344 346 348 346 346 347 346 342 342 349 350 355 358 362 362
319 323 327 325 325 331 336 331 330 330 331 334 334 336 339 341 344 346 349 350 346 348 347 345 349 346 348 355 345 349 353 362
318 320 326 323 322 321 321 322 326 324 324 325 326 326 329 336 344 349 352 354 348 347 345 343 348 346 350 356 358 354 359 363
316 316 318 318 318 318 319 319 320 320 320 321 323 324 326 330 338 347 354 355 358 358 361 360 348 354 358 356 355 359 364 365
316 317 319 318 317 317 317 318 318 318 318 319 320 322 328 332 341 343 347 356 354 359 364 363 365 363 363 364 363 363 363 368
318 317 319 321 318 318 318 317 319 319 319 319 320 325 329 332 341 342 350 353 356 355 355 356 356 356 357 357 361 365 365 364
313 314 314 316 318 317 318 318 318 319 319 321 320 323 327 330 341 341 345 351 353 354 353 353 352 351 351 355 358 358 360 361

GFSFLT2_925_thetae_039.txt.gz
Theta_e
334 330 327 325 325 322 323 325 325 324 324 324 326 329 329 331 338 350 350 350 351 348 348 347 348 354 355 358 357 357 359 358
331 332 329 326 324 324 323 324 325 325 325 326 325 326 329 328 330 346 348 350 352 349 349 348 348 352 355 359 359 358 358 359
326 329 330 325 325 324 322 322 325 329 329 327 326 326 328 329 330 341 347 349 353 351 350 349 348 351 354 357 360 360 360 358
322 325 328 327 324 324 325 324 325 324 327 331 331 328 328 330 330 335 343 345 353 352 351 350 349 350 353 354 359 360 361 359
325 324 324 327 325 324 324 325 327 326 327 333 332 329 329 331 332 332 340 345 352 353 352 351 350 350 352 353 357 360 361 362
329 326 327 329 327 325 325 327 327 327 330 333 334 332 334 332 337 335 340 344 351 352 353 353 351 351 351 352 355 359 361 362
329 330 330 332 327 327 326 326 328 326 332 333 336 337 338 337 337 340 342 345 348 351 352 353 353 352 352 352 353 356 361 363
331 331 333 334 333 328 327 327 327 328 327 333 334 336 336 337 336 334 336 341 341 346 351 353 354 354 354 354 354 355 359 362
331 332 333 336 334 332 328 328 327 329 329 333 335 337 334 335 333 332 332 333 333 333 339 349 355 355 356 356 356 356 356 360
328 330 337 332 332 333 330 330 327 327 334 334 337 340 339 335 331 333 335 335 334 332 334 336 350 357 356 356 358 357 357 358
328 333 333 334 331 331 333 341 337 340 336 334 340 344 344 342 343 344 344 345 345 345 344 345 341 341 358 358 358 360 358 359
323 333 338 330 326 325 330 342 332 335 342 336 343 350 347 342 342 344 345 345 346 345 344 343 347 345 357 360 359 360 361 362
320 325 330 323 323 331 340 339 327 326 328 329 330 332 334 341 342 343 346 347 348 346 347 347 342 343 349 351 361 359 359 360
319 323 331 318 322 325 331 326 324 322 323 324 324 325 326 328 339 345 343 349 352 348 347 344 342 350 347 345 351 358 361 360
318 319 317 316 317 318 318 319 320 320 319 319 321 322 325 328 333 340 340 341 352 357 358 361 353 347 350 359 358 360 356 359
314 315 314 316 317 318 318 318 317 316 317 318 318 320 323 326 328 337 339 341 350 354 358 363 362 361 362 364 360 354 357 368
314 313 315 317 314 316 316 316 318 318 318 318 318 322 323 324 326 338 338 341 345 349 355 358 356 357 357 358 361 365 355 366
312 311 311 312 312 312 313 314 316 317 320 321 319 321 323 321 322 337 338 340 344 347 352 353 355 354 353 353 356 360 365 366
309 309 309 309 310 310 311 312 315 316 317 318 318 320 319 318 319 323 339 340 343 346 348 351 350 350 349 352 355 357 356 364

GFSFLT2_925_thetae_045.txt.gz
Theta_e
318 324 329 329 330 326 323 316 322 328 320 320 325 338 346 348 348 348 344 343 346 348 346 347 348 348 348 347 348 348 347 348
320 321 326 331 325 329 319 330 323 321 321 326 322 323 335 348 348 346 345 344 343 346 346 345 347 348 348 347 348 349 348 348
320 321 323 325 330 326 327 321 332 320 323 318 320 322 323 338 344 344 347 345 343 345 347 346 347 349 349 348 348 349 350 349
322 321 319 320 326 318 332 327 317 320 327 321 320 320 319 323 335 339 345 345 344 345 346 346 345 348 349 349 348 348 350 351
322 318 318 318 320 321 321 315 318 330 330 319 320 323 323 322 321 333 341 343 344 345 345 346 346 346 349 349 349 348 349 351
319 316 314 314 315 315 317 319 320 321 324 321 320 321 322 323 323 324 339 342 345 346 345 346 346 346 348 350 350 349 349 350
311 312 312 312 313 314 320 321 322 322 319 320 319 322 328 329 322 322 336 344 346 346 345 345 346 346 348 349 351 351 351 352
313 312 312 314 315 319 321 325 319 320 320 319 338 341 343 341 328 326 342 345 347 346 345 346 345 345 347 349 352 352 352 352
312 313 315 324 323 325 328 324 325 321 324 334 344 346 346 346 341 332 338 344 347 346 345 345 345 345 346 350 351 354 354 354
311 313 332 323 321 321 322 320 321 324 333 344 347 345 343 343 346 347 340 341 345 346 346 346 346 345 346 349 350 354 355 355
313 318 327 324 321 322 322 320 318 320 324 335 345 345 344 334 340 345 349 338 337 344 346 347 347 346 346 348 350 351 353 355
316 322 334 323 318 319 323 322 319 317 319 327 338 347 334 329 336 341 349 350 341 339 346 349 348 347 347 348 348 349 352 354
318 321 325 320 317 320 326 323 317 316 316 318 324 324 325 327 335 336 341 348 355 351 341 341 348 349 348 348 349 349 349 351
320 326 331 315 320 322 316 315 314 313 314 315 319 323 323 321 329 335 336 342 348 354 353 345 342 349 349 350 351 352 352 351
315 319 315 313 318 314 312 312 312 311 312 315 318 321 321 320 317 322 334 337 342 345 351 353 355 355 354 357 356 356 354 354
311 310 310 312 313 311 312 312 311 311 311 312 314 318 317 318 317 316 322 334 338 341 343 348 350 349 348 349 355 358 357 357
311 310 311 313 312 313 313 312 313 312 312 312 312 315 314 316 318 319 321 328 336 337 339 344 348 346 348 349 348 351 357 358
313 311 312 312 312 312 312 312 312 312 312 312 311 315 315 314 316 318 324 330 334 336 338 343 347 347 349 350 352 352 352 353
312 311 313 313 314 313 311 312 312 312 312 312 312 314 315 315 317 318 320 325 332 334 338 342 345 346 347 348 348 349 347 349

GFSFLT2_925_thetae_051.txt.gz
Theta_e
319 321 323 325 327 324 323 326 327 324 331 332 333 334 336 341 348 352 353 352 351 350 349 349 349 349 348 348 347 346 347 346
319 320 321 324 325 328 327 327 329 326 328 331 336 335 335 338 343 350 352 353 352 351 349 349 349 349 348 348 348 347 346 347
318 323 324 324 326 328 328 328 327 327 328 329 333 338 336 337 340 344 350 352 352 352 350 350 349 349 349 348 348 348 347 347
317 320 320 320 324 326 332 333 331 330 327 328 332 334 335 336 337 341 346 350 351 351 351 350 350 349 349 349 348 348 348 347
311 318 317 321 319 320 323 326 333 330 328 329 331 331 330 331 333 336 345 348 349 348 351 351 351 351 350 349 348 348 348 348
313 314 314 317 316 317 320 331 332 334 332 330 329 332 331 330 330 328 334 345 349 349 353 353 352 352 351 350 349 349 349 349
308 309 311 312 313 314 318 323 329 332 332 334 333 333 333 328 335 340 338 333 345 349 352 352 353 352 351 351 350 349 350 350
309 308 312 314 314 314 316 319 320 322 326 326 339 341 341 347 348 349 349 349 343 338 350 352 350 352 351 351 351 350 350 351
307 311 314 317 316 316 319 322 323 327 327 331 339 348 344 344 343 345 347 348 351 348 337 350 348 350 350 351 351 351 351 351
309 309 320 320 322 319 323 323 322 324 327 329 342 346 343 333 333 340 344 346 348 350 342 341 344 347 349 351 351 351 352 352
311 319 320 324 321 322 325 324 320 322 324 328 336 346 347 328 325 328 338 342 348 351 343 341 347 348 350 352 352 352 352 352
311 319 330 323 318 317 320 328 316 317 319 325 342 353 337 325 326 329 338 343 351 347 343 346 349 349 351 351 353 353 352 353
312 314 318 313 314 318 330 324 315 314 316 320 327 325 323 326 332 335 342 344 352 349 349 350 349 349 351 352 354 353 353 353
312 314 319 311 314 323 318 316 315 314 315 317 317 319 321 327 331 334 338 344 348 352 349 349 349 350 352 354 353 354 354 354
317 317 312 313 313 313 316 318 317 315 315 314 315 316 320 322 325 330 334 341 346 350 351 352 350 350 352 353 353 354 356 357
312 313 313 313 313 315 314 317 316 315 315 314 315 315 317 320 322 322 328 338 345 349 350 351 353 355 356 357 353 353 354 356
312 311 313 313 313 314 314 315 315 314 315 315 315 315 316 319 323 322 324 332 339 344 347 348 349 350 350 353 358 356 354 354
313 310 312 312 311 312 314 315 315 314 314 314 315 315 316 316 319 321 324 328 329 327 338 345 345 343 344 345 346 351 355 357
310 309 310 309 310 310 312 314 315 315 314 314 314 314 314 316 317 320 321 325 326 324 326 331 339 337 334 336 344 344 346 348

GFSFLT2_925_thetae_054.txt.gz
Theta_e
322 323 327 328 329 326 327 328 329 325 323 327 335 338 339 340 344 351 352 353 354 353 351 349 350 351 351 351 352 353 351 353
322 323 324 327 328 329 328 331 332 329 328 325 334 337 338 339 340 345 349 352 353 354 352 351 350 350 351 351 352 353 351 352
319 322 322 325 327 328 329 329 332 332 329 327 329 332 337 337 339 341 347 351 352 353 352 352 351 350 351 351 352 351 352 351
315 319 324 324 327 327 331 334 331 332 331 328 328 329 333 336 338 340 342 348 351 352 351 352 352 351 350 351 351 352 351 353
313 313 316 321 325 327 327 330 334 334 333 330 329 332 331 334 336 339 341 343 349 351 353 352 352 352 351 351 350 351 352 352
311 314 314 319 322 323 325 330 331 333 335 332 332 331 333 334 335 335 339 343 347 349 351 352 352 354 353 351 350 349 351 351
310 310 309 312 314 317 320 325 330 330 334 334 332 330 331 333 334 336 335 335 341 346 350 354 354 356 355 352 352 350 352 352
310 309 308 308 311 315 317 319 322 327 329 331 333 336 340 337 342 344 342 345 342 341 348 351 352 355 356 356 353 353 354 354
310 309 308 312 313 317 318 319 321 326 328 331 334 337 344 345 345 345 346 347 348 349 347 344 349 352 355 358 355 354 356 356
310 309 309 308 310 316 319 320 321 324 326 330 334 340 347 342 343 343 344 344 348 349 349 349 343 347 351 355 357 357 358 358
310 310 308 313 324 325 325 324 324 327 328 330 333 342 349 340 340 342 343 344 346 347 349 350 351 342 348 352 355 358 359 359
311 311 314 320 316 316 322 332 322 323 327 330 336 343 340 338 339 342 343 345 347 349 351 352 352 342 346 351 354 359 359 359
313 312 313 314 312 312 329 328 318 320 323 329 338 334 332 328 331 334 339 346 350 354 354 350 348 342 350 353 355 357 356 356
314 315 317 313 310 319 319 319 318 318 319 320 323 323 322 322 323 326 337 349 353 354 352 348 347 348 355 358 355 356 356 356
314 315 314 312 311 312 317 318 319 318 317 317 317 318 319 321 323 323 333 340 352 355 355 353 351 351 354 357 356 357 357 358
314 315 313 312 311 312 315 317 318 316 316 317 317 317 318 319 323 325 329 327 335 351 354 357 357 355 356 357 357 358 359 359
311 312 310 311 311 312 315 316 316 316 315 316 317 318 317 319 323 325 327 329 328 332 347 348 349 350 353 358 357 358 359 360
312 308 311 311 311 311 314 315 317 316 316 316 316 317 317 318 320 324 327 326 328 330 332 338 339 343 346 351 354 359 358 358
308 308 309 309 309 310 311 314 314 315 317 316 316 316 316 317 320 325 325 325 327 328 327 330 331 333 337 343 350 352 355 360

GFSFLT2_925_thetae_057.txt.gz
Theta_e
322 322 325 329 330 328 330 331 331 327 325 328 337 340 346 345 348 351 353 353 353 351 348 349 350 352 351 353 357 357 355 355
321 322 324 326 328 329 328 334 335 331 331 327 328 335 339 341 344 350 354 352 353 354 351 349 350 350 352 353 356 357 355 356
319 323 323 324 327 329 331 329 333 335 332 332 329 328 334 339 341 344 349 350 352 354 352 351 351 350 351 352 354 356 356 356
318 320 321 321 322 323 333 335 331 332 333 332 331 329 331 336 339 340 342 347 350 351 352 353 352 352 352 352 352 355 356 357
316 317 317 320 322 325 325 328 334 333 332 332 331 330 330 332 334 338 340 343 348 349 351 353 353 353 352 352 352 353 355 356
316 317 316 318 320 323 325 329 329 331 333 332 333 332 332 333 334 337 341 344 345 349 351 352 354 356 355 352 352 352 353 354
313 313 313 314 318 321 325 328 333 332 332 334 333 333 334 334 334 336 337 340 344 346 355 361 357 358 357 354 354 352 353 353
313 312 312 312 313 314 319 322 324 326 329 330 331 335 336 333 336 337 338 338 338 344 348 351 353 359 359 357 356 354 355 354
315 312 312 312 311 311 313 316 319 324 327 328 331 333 337 338 339 341 343 343 345 345 343 346 349 353 357 359 357 357 357 357
319 314 314 312 312 312 313 314 318 320 323 325 327 332 335 346 345 345 345 345 346 347 347 346 346 349 351 356 359 359 359 360
318 316 314 311 316 323 321 322 321 321 322 323 325 327 332 337 343 346 347 348 347 346 346 347 349 346 347 353 361 360 362 360
316 315 315 312 319 316 320 325 323 328 323 323 326 331 332 339 340 341 343 346 349 350 350 351 351 351 350 348 356 363 362 362
316 316 313 318 316 314 324 325 318 324 327 328 331 335 333 330 332 334 338 344 346 353 354 354 355 353 354 349 354 359 362 362
317 316 315 317 315 315 317 312 312 321 322 325 326 325 325 326 326 328 334 332 338 354 357 355 355 356 359 358 352 358 360 362
314 314 317 315 315 315 312 311 312 320 319 320 322 321 320 321 324 326 328 328 333 346 361 359 355 350 358 355 357 360 362 363
315 315 313 312 312 311 310 310 313 318 318 317 320 320 319 321 323 327 327 327 330 338 346 355 355 359 361 360 359 362 364 364
312 311 309 311 311 310 310 313 317 318 317 317 317 320 318 319 322 327 327 327 328 330 333 336 340 343 348 357 360 361 363 363
312 309 309 309 309 309 310 315 315 316 317 316 317 319 319 320 321 327 326 327 326 326 328 329 331 332 336 345 357 361 363 363
308 307 308 308 308 308 310 313 313 312 313 317 316 318 318 321 324 324 324 324 326 326 326 326 327 328 330 336 346 359 361 362

GFSFLT2_925_thetae_060.txt.gz
Theta_e
323 322 324 328 329 326 328 329 332 330 328 327 329 335 347 350 351 353 348 348 353 353 351 352 351 350 352 355 356 356 354 356
321 322 323 323 326 329 330 332 335 331 335 330 331 333 340 350 349 350 348 346 349 353 351 352 352 352 351 355 357 358 357 357
319 322 322 323 325 326 328 331 333 333 333 335 337 332 337 348 350 348 347 351 351 352 352 351 352 353 352 353 359 360 359 357
319 320 321 322 324 324 329 333 333 332 331 332 334 333 332 334 340 350 350 351 348 344 343 352 352 353 354 353 355 359 360 359
317 318 318 320 321 322 323 324 333 335 332 331 333 335 333 332 332 350 347 346 345 347 350 354 352 353 354 354 354 358 360 359
318 318 317 318 319 319 321 324 324 326 331 335 333 334 334 333 335 337 349 350 349 351 356 356 354 354 354 354 354 355 358 359
314 314 314 315 316 317 319 323 327 326 328 331 335 337 337 338 340 338 339 344 343 350 353 357 357 356 355 355 354 354 355 357
315 315 315 315 315 315 317 320 323 325 329 330 331 335 335 338 342 349 341 338 344 348 353 355 359 359 357 356 356 355 355 357
319 316 317 316 314 314 315 316 320 324 326 327 327 331 336 337 338 348 351 347 351 352 352 348 343 349 360 358 356 356 356 356
320 317 322 319 316 314 314 315 315 316 318 320 323 326 329 331 338 341 349 350 351 347 349 348 344 344 359 360 359 359 357 359
317 318 316 315 316 320 323 317 316 325 324 326 322 322 326 337 341 341 337 341 348 347 347 350 351 350 353 360 360 359 362 359
317 315 314 314 318 317 317 319 323 323 323 325 329 330 331 333 334 335 336 337 344 347 349 351 351 351 352 353 364 361 359 362
317 318 315 317 316 316 318 317 319 319 320 319 326 330 329 328 328 328 331 334 335 339 346 351 358 355 354 354 355 364 361 360
318 317 318 317 316 316 319 318 317 316 317 317 320 323 325 324 326 327 329 328 330 335 345 357 362 362 358 359 355 356 364 363
315 315 318 316 315 315 314 315 315 314 315 315 316 321 322 322 324 326 327 328 328 331 336 340 343 355 365 362 360 357 360 365
313 315 312 313 313 312 311 312 313 313 313 312 317 319 320 321 322 323 327 328 326 328 329 332 333 340 347 351 363 363 356 367
312 311 309 312 309 309 310 309 311 311 315 317 318 319 319 320 322 322 326 326 326 326 326 326 328 334 338 340 349 363 364 367
312 309 308 308 309 308 307 308 309 314 315 317 317 318 319 320 320 324 325 324 326 325 324 325 325 326 329 333 337 352 368 368
307 305 307 308 307 306 307 309 311 311 313 317 317 317 318 320 321 321 322 322 323 325 324 324 324 324 326 329 333 340 353 364

GFSFLT2_925_thetae_063.txt.gz
Theta_e
319 319 321 324 325 321 322 323 324 326 326 324 324 350 354 349 345 345 354 351 351 348 347 346 347 348 350 351 350 353 351 346
317 317 319 318 321 323 322 324 326 326 326 328 328 325 348 349 349 353 352 353 350 348 349 347 347 349 349 352 351 353 353 350
315 317 317 319 319 320 319 323 325 326 326 325 328 329 346 347 350 352 347 349 349 349 346 347 347 348 350 353 352 353 353 354
314 314 315 315 316 319 321 322 324 328 329 327 326 328 335 347 348 350 344 344 348 347 342 342 345 348 349 352 354 354 354 353
315 313 315 316 316 316 318 318 320 324 326 328 330 330 331 336 344 348 346 348 345 344 345 344 342 342 350 350 355 355 356 354
312 313 313 314 314 314 315 316 318 320 322 321 330 330 330 333 344 347 346 346 344 341 338 337 339 342 350 351 352 357 357 358
310 312 313 313 313 313 314 315 317 318 320 325 327 327 330 333 341 346 348 348 345 342 340 348 344 350 351 351 351 354 358 359
316 313 313 314 315 316 314 314 315 316 318 322 323 323 327 329 335 343 346 341 346 345 342 347 344 343 348 351 353 352 356 359
317 316 316 317 316 315 315 314 313 314 315 321 327 323 326 342 343 343 340 339 339 346 345 345 346 346 344 351 353 354 353 357
315 316 318 315 315 317 317 318 318 316 324 323 324 327 329 331 335 337 337 338 339 340 339 343 342 347 350 351 353 352 354 354
316 315 313 313 313 319 318 321 321 322 322 322 323 327 328 326 328 329 330 332 334 334 336 339 345 343 348 348 353 351 354 356
317 316 315 314 316 315 315 318 318 317 318 321 322 328 325 322 325 326 328 329 329 331 333 336 343 348 348 341 344 349 356 357
317 317 315 315 316 315 318 318 317 316 315 316 319 319 319 321 321 324 327 328 328 329 330 335 340 340 358 354 353 354 356 360
318 317 317 314 317 318 316 314 314 314 314 313 315 316 318 319 321 322 323 327 326 327 329 331 333 335 341 349 350 356 354 359
316 316 312 310 312 311 310 310 311 310 311 312 313 314 316 318 319 321 323 326 326 326 326 327 327 329 335 336 339 344 354 357
310 313 310 308 309 309 308 309 308 308 310 310 313 314 317 317 318 321 323 325 326 325 324 325 325 326 327 331 333 337 347 361
310 310 307 309 307 308 308 307 306 308 309 312 315 317 316 317 318 321 320 325 325 326 325 324 324 324 324 325 329 333 341 360
310 307 307 306 306 307 308 307 307 308 311 311 313 314 316 318 319 319 323 322 322 325 323 322 322 321 321 322 325 329 334 349
308 306 306 307 307 306 306 307 307 308 309 310 311 315 317 318 318 320 321 319 320 322 320 319 320 317 318 320 323 326 329 335

GFSFLT2_925_thetae_066.txt.gz
Theta_e
315 314 316 317 322 318 319 319 320 321 322 323 323 340 345 345 347 348 348 344 347 343 343 346 345 344 346 350 349 348 347 346
315 314 313 312 316 319 316 322 324 322 323 323 328 336 348 344 349 348 347 350 349 345 343 344 346 345 345 347 349 348 348 347
312 311 313 312 311 312 314 317 321 322 322 324 332 332 336 345 347 344 350 350 349 348 346 344 346 347 346 346 348 350 349 348
313 312 313 313 311 308 313 317 318 320 323 327 329 330 332 344 343 344 349 348 348 348 347 346 344 347 347 348 347 347 350 350
311 310 309 311 311 310 307 310 316 319 319 323 326 328 336 344 346 345 346 342 339 341 345 346 346 345 347 348 349 349 349 350
310 311 310 310 311 311 308 309 311 315 315 316 320 324 335 342 345 346 346 346 345 345 345 344 343 343 346 348 350 350 350 351
309 311 311 311 312 313 313 312 311 313 314 317 323 333 342 341 342 344 343 344 345 346 345 344 340 342 343 346 349 352 351 352
314 314 314 315 314 315 314 314 314 312 313 322 325 332 336 338 338 339 340 340 340 339 339 341 343 345 345 347 348 353 353 353
315 313 314 314 313 314 315 318 321 314 321 321 323 328 331 330 331 332 335 339 339 337 336 337 341 343 345 345 348 350 355 355
312 312 315 310 310 312 319 320 320 321 321 320 320 322 321 324 327 329 330 330 330 332 334 336 339 345 346 346 344 351 351 356
313 313 312 313 311 315 316 319 317 317 316 319 317 323 322 318 323 325 327 328 328 329 331 334 339 340 348 348 342 341 344 351
314 315 316 312 315 315 313 317 316 315 315 315 317 320 321 315 318 322 325 327 327 327 330 332 334 335 342 348 344 339 343 346
313 314 316 314 313 314 317 314 312 312 312 312 314 315 314 313 315 319 323 326 326 325 328 329 329 332 336 339 343 343 345 351
316 315 315 311 313 316 313 309 309 309 308 309 309 311 311 312 313 315 322 324 325 325 324 325 326 328 329 331 333 334 337 343
311 316 312 308 308 308 307 306 307 306 307 307 309 309 310 312 313 314 320 322 324 325 323 323 323 325 326 326 328 330 333 341
306 309 309 306 307 305 306 307 307 307 306 306 308 309 312 313 314 314 318 320 323 324 325 324 322 322 323 323 327 330 330 332
305 305 305 307 306 305 306 307 307 306 306 306 310 310 311 311 313 315 318 319 323 322 324 322 320 321 319 320 323 324 327 328
304 304 305 306 306 305 306 305 306 307 307 307 309 309 310 311 315 316 318 321 320 321 320 317 316 316 316 316 318 322 323 326
305 304 304 304 305 306 305 306 305 306 306 308 307 309 310 312 315 317 318 318 317 317 314 312 312 313 312 314 315 319 320 322

GFSFLT2_925_thetae_069.txt.gz
Theta_e
314 312 314 316 318 317 316 316 319 319 320 321 328 334 343 347 350 352 348 347 347 341 341 342 343 343 345 346 346 345 345 345
313 312 312 311 312 316 314 321 323 320 321 322 330 331 344 344 349 350 349 345 345 343 341 342 343 343 344 346 346 345 345 346
310 311 312 310 309 308 310 314 319 321 321 326 329 328 330 338 342 344 344 345 345 344 342 342 343 343 344 346 346 346 346 346
312 309 310 308 309 305 309 312 313 317 324 318 319 326 340 345 346 343 344 345 346 345 343 342 344 343 343 344 347 346 346 346
310 308 307 309 309 308 304 305 310 315 316 317 323 341 340 342 343 345 345 343 342 343 343 344 344 345 344 344 346 347 347 346
311 310 308 310 310 309 307 309 310 310 311 323 332 341 338 337 338 340 341 343 343 343 342 341 343 345 345 346 345 346 347 348
310 312 313 313 313 313 313 311 312 311 312 322 323 333 333 331 333 337 339 338 337 337 337 340 343 343 342 344 346 347 346 348
313 313 312 313 312 312 313 313 313 316 315 319 321 327 328 327 329 332 332 332 333 335 336 337 338 343 344 343 343 348 348 347
314 311 311 311 312 312 318 321 320 316 320 319 320 323 322 325 325 328 330 329 330 330 333 335 337 341 344 346 345 346 350 349
311 310 311 308 309 312 319 318 317 317 316 317 317 316 317 315 317 324 327 327 328 328 329 331 335 336 341 346 346 346 350 351
311 311 310 312 312 313 316 318 316 315 315 314 314 316 319 313 313 315 321 325 326 325 327 330 331 332 339 345 347 339 342 349
310 312 315 310 314 313 313 317 314 313 313 312 312 317 321 311 311 312 314 320 326 325 325 327 327 328 334 337 338 337 341 345
309 309 312 313 310 312 316 313 311 311 310 309 310 310 309 309 309 310 312 315 323 325 325 323 325 325 329 331 331 331 333 336
313 312 312 309 310 315 311 307 307 308 307 307 307 307 307 308 308 310 311 313 320 324 325 323 323 323 325 327 325 327 331 333
310 310 309 308 307 306 306 306 305 305 304 305 306 306 307 307 307 311 312 313 316 322 324 324 322 321 322 323 322 323 327 331
305 305 307 307 305 305 304 305 305 305 305 305 306 305 305 308 310 310 311 313 315 319 323 324 322 320 319 319 320 319 322 326
302 302 304 306 306 305 304 305 305 305 305 306 305 304 305 307 307 309 310 312 315 319 321 322 320 318 316 316 316 317 319 323
302 301 302 302 304 304 305 306 304 306 306 306 306 306 307 307 308 309 309 312 315 319 320 318 317 315 314 313 313 314 316 319
303 301 302 302 303 304 305 306 305 305 305 306 305 306 306 308 309 311 313 313 318 319 317 314 313 312 311 310 312 314 314 317

GFSFLT2_925_thetae_072.txt.gz
Theta_e
312 311 312 316 316 314 314 314 318 318 319 319 324 329 333 341 346 348 350 348 346 340 341 341 341 341 343 343 343 343 343 343
311 311 310 310 310 317 315 321 323 319 324 325 322 324 337 344 345 343 349 347 345 343 340 342 341 341 342 343 343 343 343 343
309 309 308 309 308 307 310 313 318 320 326 320 319 330 341 340 341 345 342 347 344 344 340 341 342 341 341 344 344 344 344 344
310 308 308 307 308 304 313 313 311 317 319 326 336 337 335 338 339 341 343 343 344 344 341 340 341 342 342 343 344 344 344 344
311 308 307 308 308 305 302 304 310 319 319 324 329 332 330 335 338 337 337 339 341 342 343 343 342 342 342 343 345 345 345 345
307 309 307 312 312 310 305 309 309 310 311 321 327 330 328 328 332 332 333 335 335 336 337 340 342 344 344 342 343 345 346 345
311 312 312 312 313 313 312 311 311 309 317 322 324 328 326 325 326 329 331 331 332 334 335 336 339 342 343 343 343 343 346 346
313 312 311 312 312 312 312 312 310 312 319 318 320 321 321 320 322 325 328 329 329 330 331 333 336 339 341 343 343 344 344 345
311 310 310 313 311 312 319 320 320 318 319 317 316 321 317 315 315 317 319 323 326 327 327 329 332 334 335 340 345 344 346 345
310 307 307 305 308 310 318 318 317 316 315 315 314 313 314 312 312 312 313 314 318 324 325 326 329 328 333 341 345 345 345 347
310 308 307 311 314 316 317 316 315 315 314 313 311 312 316 311 310 310 310 311 313 317 324 325 324 325 330 335 338 341 341 344
307 311 312 308 313 311 312 314 313 313 311 310 309 314 319 308 307 308 308 309 311 313 320 323 324 323 325 330 331 331 333 336
309 307 310 312 310 311 314 312 310 310 309 308 308 308 307 307 306 307 307 308 311 312 316 321 323 323 322 325 326 327 330 333
308 309 312 309 309 314 309 307 307 306 307 306 306 306 306 306 305 306 306 308 311 312 313 317 321 323 322 322 322 322 326 330
307 307 307 307 307 305 305 305 305 305 304 304 305 305 305 305 305 305 305 308 310 310 312 315 319 322 321 321 319 318 320 325
304 303 304 306 305 304 304 304 304 303 303 304 305 305 305 304 304 304 305 307 308 308 311 314 317 320 322 318 316 315 316 318
301 301 301 303 305 305 304 304 304 304 305 305 306 306 306 305 304 304 306 306 307 308 309 312 317 319 320 316 314 311 313 315
304 301 302 302 303 303 304 304 304 306 306 305 305 306 305 305 306 307 307 307 308 308 309 311 317 318 317 316 312 309 311 314
303 299 301 303 303 303 303 303 306 306 305 305 304 305 305 306 307 306 307 309 311 312 311 313 317 315 314 314 312 308 308 310

GFSFLT2_925_thetae_075.txt.gz
Theta_e
314 314 316 321 326 321 324 321 328 326 327 326 335 342 343 345 346 348 350 348 351 348 345 345 345 346 346 347 348 348 347 349
313 314 315 319 316 325 325 330 330 328 332 331 343 342 341 343 343 345 347 350 350 350 346 345 345 345 346 347 347 346 347 348
315 314 314 317 318 319 323 323 329 330 331 338 339 337 339 340 340 341 348 349 351 349 346 346 345 345 345 346 346 347 347 347
313 311 310 313 313 314 327 327 323 327 329 332 335 333 333 336 336 338 340 345 348 348 346 345 345 345 344 345 346 346 346 346
315 314 313 315 314 312 313 317 324 327 327 331 332 332 330 331 333 333 335 337 338 340 343 346 346 345 344 344 345 346 346 346
317 316 314 316 314 313 315 321 319 320 319 332 332 331 330 330 330 330 331 331 332 334 336 338 342 346 346 345 344 345 346 346
315 314 314 314 314 313 314 315 319 318 322 330 330 329 327 326 326 326 326 327 329 329 330 332 335 338 343 345 346 346 347 347
315 313 313 313 313 313 313 313 314 315 323 324 325 326 324 321 321 321 320 321 323 326 327 327 330 332 334 338 343 345 345 347
316 314 313 312 313 313 315 320 317 317 321 321 321 323 319 315 314 314 315 316 319 320 323 326 326 328 328 332 342 346 346 346
315 312 313 313 313 312 317 320 321 321 321 318 317 316 316 315 316 314 313 313 314 316 318 321 324 325 325 330 335 343 348 347
317 313 312 312 313 316 315 316 318 319 318 316 315 316 318 315 313 312 312 311 311 312 315 318 321 324 326 327 331 331 336 341
317 314 313 313 315 314 316 315 316 317 316 315 315 318 322 313 311 310 309 310 310 311 313 315 318 321 325 326 328 330 328 328
316 316 313 313 314 314 316 317 314 313 313 313 314 314 312 310 310 309 308 308 308 310 313 313 315 319 323 325 325 324 324 325
317 318 317 313 313 316 314 312 311 310 309 310 310 309 309 309 309 308 308 307 308 309 311 311 312 316 320 322 324 323 322 321
317 316 313 311 311 310 309 309 309 309 307 307 308 308 308 308 308 307 307 307 307 308 309 310 310 313 317 320 322 322 319 318
311 311 313 313 310 308 308 309 308 307 307 307 307 307 307 308 307 307 307 307 306 307 308 309 310 311 313 318 321 319 319 317
312 309 308 309 308 308 308 308 307 307 307 306 307 307 306 307 306 307 308 308 308 308 308 309 309 310 312 315 319 317 317 316
316 312 310 309 309 309 308 308 308 307 306 307 306 307 306 306 306 306 307 309 309 309 310 310 312 313 313 315 317 315 315 316
311 309 309 309 309 308 308 308 307 307 307 307 307 306 306 306 306 306 306 306 306 306 306 308 307 310 313 312 310 311 313 313

GFSFLT2_925_thetae_078.txt.gz
Theta_e
318 319 323 332 332 329 332 331 333 333 338 340 341 345 347 346 347 350 350 354 353 350 349 349 349 349 349 350 352 353 352 353
317 318 321 327 329 330 330 334 336 333 337 344 346 345 344 343 344 349 351 353 353 352 350 349 349 349 350 350 352 353 352 352
319 322 324 324 327 328 329 329 333 336 338 343 341 340 341 340 340 344 346 352 352 351 351 349 349 349 349 351 351 353 353 352
321 316 316 320 324 327 330 331 330 332 345 338 339 336 337 337 337 337 340 340 341 344 351 350 350 350 350 350 350 351 352 352
319 318 318 322 320 322 324 328 331 329 342 337 338 338 337 336 334 334 334 334 335 337 339 342 345 351 350 349 349 349 349 350
323 323 321 321 319 319 323 329 331 330 340 338 337 338 337 337 332 329 330 331 332 331 331 333 338 342 345 350 349 348 349 350
319 318 319 318 318 318 322 324 328 328 337 336 335 333 332 331 330 329 328 328 329 330 329 329 330 332 335 340 344 350 349 349
320 317 317 317 317 317 316 318 322 326 332 331 331 329 326 325 324 324 323 323 324 325 326 328 328 328 328 330 336 346 349 350
319 316 315 315 316 316 317 318 319 323 328 327 329 327 324 322 322 320 319 319 319 319 320 322 325 326 328 328 333 336 347 351
319 316 315 318 317 316 317 320 320 324 324 324 323 322 321 322 322 321 320 318 317 316 317 318 320 322 326 329 330 332 331 335
318 316 316 315 315 316 319 321 320 322 321 321 320 320 322 319 318 318 317 316 316 315 316 317 318 318 322 326 330 331 330 329
316 318 317 319 318 317 317 322 320 320 320 319 319 319 326 318 315 315 314 314 314 314 314 316 316 316 319 322 325 329 329 328
318 319 316 317 317 316 315 323 319 319 319 318 318 319 317 315 315 314 313 313 312 313 314 315 315 315 317 320 322 325 326 326
320 320 321 317 316 317 320 318 316 315 315 315 315 314 314 314 314 313 312 312 312 312 312 313 314 314 316 317 320 323 324 324
318 320 319 317 318 316 315 315 314 313 312 312 312 312 312 313 312 312 312 312 312 311 311 312 313 313 314 315 316 319 322 323
316 315 317 316 315 314 312 312 312 311 311 310 311 311 312 312 311 311 311 311 312 313 312 312 312 313 313 314 314 316 320 321
316 315 312 314 314 312 311 311 310 310 309 309 310 311 311 311 311 310 310 310 310 311 310 309 309 310 312 315 316 316 318 320
316 314 314 313 313 312 312 311 310 310 310 309 309 310 309 308 307 307 308 309 309 308 309 309 309 309 310 311 312 317 318 317
315 314 313 312 312 311 311 311 309 309 309 309 309 309 308 308 307 306 306 307 307 307 306 306 306 307 308 309 309 309 311 315

GFSFLT2_925_thetae_084.txt.gz
Theta_e
329 331 333 334 336 336 337 336 336 350 356 354 352 350 350 352 356 355 357 357 354 352 351 351 347 348 351 356 358 358 357 357
331 332 334 335 333 336 337 341 339 354 357 357 355 352 348 348 348 347 346 355 352 351 348 352 349 349 352 356 358 358 357 358
332 333 334 333 333 334 334 335 336 354 359 351 353 350 348 345 344 345 344 347 350 347 343 351 351 349 351 357 358 359 359 359
330 328 329 331 333 334 336 340 336 353 357 346 347 345 344 341 342 343 343 340 343 344 343 340 343 350 351 351 355 358 359 359
329 326 326 327 328 330 332 334 339 346 353 345 346 344 341 339 339 341 341 342 340 339 339 338 337 339 344 350 351 353 358 359
330 327 326 327 327 329 330 333 335 349 351 347 348 346 341 338 336 337 338 339 339 338 336 336 335 335 338 343 344 349 353 346
329 324 326 326 326 327 329 330 348 348 347 347 346 344 341 338 337 336 334 334 334 333 332 333 334 333 334 337 338 342 346 348
324 322 324 325 325 326 326 328 335 339 345 340 339 339 338 336 334 333 332 331 331 332 330 330 331 332 333 334 333 336 338 339
326 322 321 324 324 323 324 325 341 347 342 338 337 335 333 331 330 329 328 327 327 327 327 326 327 329 332 334 332 332 332 333
324 324 324 323 322 321 322 323 333 340 339 335 333 331 330 329 328 328 326 325 324 324 324 323 323 325 328 332 334 333 333 332
323 323 323 322 321 320 321 322 330 337 336 332 329 329 327 326 324 324 323 322 321 321 323 323 322 322 323 325 329 329 330 333
323 322 323 324 321 321 319 323 325 330 332 331 329 331 327 323 322 321 320 320 319 319 320 321 321 321 322 323 325 325 325 328
322 322 324 323 320 319 320 325 325 327 327 326 327 327 324 322 320 319 319 318 318 318 319 319 319 320 321 322 323 322 322 323
320 322 325 322 319 320 328 325 323 325 324 325 324 323 321 320 319 318 318 318 317 318 318 318 319 319 320 321 321 321 322 322
325 330 324 323 326 324 323 323 322 322 320 320 319 318 318 318 318 317 318 317 317 317 319 319 317 316 317 317 317 317 318 319
322 325 324 322 322 321 321 320 319 319 317 316 317 317 317 317 317 317 317 316 315 315 315 315 315 314 314 313 314 314 315 317
319 320 319 319 319 319 317 317 317 316 316 316 316 315 316 316 317 315 315 314 313 313 313 313 312 311 311 311 312 311 312 313
320 319 321 320 319 319 317 315 315 315 314 313 313 316 314 314 313 313 313 312 312 312 312 311 310 310 309 308 308 309 309 310
321 320 319 318 317 317 316 315 314 314 314 314 313 314 313 313 312 309 311 310 310 310 310 309 309 307 307 307 307 307 307 307

GFSFLT2_925_thetae_087.txt.gz
Theta_e
325 327 328 328 332 330 331 334 334 359 357 353 351 352 354 355 351 345 343 343 342 341 348 351 345 350 352 353 353 352 354 347
325 327 329 328 332 331 329 338 339 364 362 365 356 351 351 349 349 348 349 351 346 347 347 348 347 351 353 354 353 352 355 352
327 325 329 333 333 332 329 332 335 360 362 354 350 348 346 347 346 347 346 350 350 348 345 347 347 349 354 356 356 354 352 354
332 332 331 333 332 331 331 333 337 353 360 348 345 343 343 345 345 343 343 342 345 345 346 346 344 344 348 348 353 356 355 357
331 330 327 328 329 328 327 328 332 345 359 346 345 343 342 343 342 343 340 339 339 338 339 341 342 342 342 346 348 350 354 356
334 330 326 326 326 325 326 328 344 353 354 348 345 342 340 339 339 340 339 339 338 337 336 335 337 340 340 344 343 346 347 352
328 329 328 325 325 326 327 343 350 349 352 349 344 340 338 336 336 337 334 333 333 334 334 335 335 337 337 340 342 344 342 342
330 328 323 323 325 326 326 340 344 345 349 343 340 338 338 336 334 334 334 332 330 331 331 332 334 335 334 336 339 337 341 343
328 323 322 325 324 323 327 340 343 347 345 342 340 335 333 330 328 328 328 327 326 326 327 328 332 334 334 332 333 334 332 333
326 324 327 323 320 321 323 341 340 340 339 338 332 329 327 326 325 325 324 323 323 323 323 323 323 329 334 334 333 333 332 333
324 322 323 323 322 321 330 342 339 339 335 331 329 327 325 324 323 322 320 321 323 323 321 322 322 323 326 325 324 324 324 328
325 326 326 324 320 318 321 342 336 331 330 329 327 328 325 320 320 320 319 319 319 321 320 319 320 322 323 323 322 322 322 322
322 325 326 322 319 318 323 331 332 329 328 327 325 324 320 319 319 319 318 318 318 319 319 320 320 321 322 320 319 320 321 323
321 325 329 327 325 329 328 322 324 325 324 322 321 321 320 318 317 318 318 318 319 320 318 317 317 317 317 317 317 317 317 318
330 328 325 324 324 322 320 322 320 319 320 320 319 319 318 316 316 318 317 316 317 317 316 315 314 314 313 314 313 314 313 314
326 326 324 323 321 321 320 319 319 316 315 315 316 316 316 315 316 317 315 314 315 314 314 313 312 311 311 310 310 310 310 311
320 323 321 322 321 319 317 319 317 317 315 316 315 316 315 315 315 315 314 314 313 313 313 310 310 309 308 308 308 308 309 309
322 322 321 322 319 318 317 316 316 315 314 313 316 314 315 313 314 314 313 313 312 312 311 310 309 307 307 307 306 306 307 307
322 320 319 319 318 319 318 315 315 314 313 312 315 314 314 313 312 311 311 311 311 310 309 308 308 307 306 306 306 306 306 305

GFSFLT2_925_thetae_090.txt.gz
Theta_e
322 321 321 322 327 325 333 337 333 358 355 351 352 354 350 349 352 349 347 346 346 345 345 348 347 349 351 351 349 348 345 348
325 321 322 324 325 330 325 334 336 359 359 357 358 357 353 353 347 348 347 345 343 343 345 346 348 347 350 352 349 348 348 345
327 323 323 326 328 326 325 327 334 356 358 353 351 349 350 349 347 347 346 348 349 344 346 347 346 347 350 350 351 352 350 347
328 327 325 327 328 326 328 330 336 352 360 347 346 346 346 347 345 344 343 344 347 346 346 346 345 347 347 349 349 350 351 350
327 325 324 324 327 324 322 323 331 347 354 346 344 344 344 345 345 342 342 341 340 342 344 343 343 345 345 346 347 347 350 350
327 325 324 326 325 323 320 324 347 351 354 350 346 345 343 343 342 341 340 340 338 337 337 340 341 342 344 346 346 345 345 346
322 324 326 326 325 322 328 334 341 351 349 348 343 341 341 339 338 336 336 337 336 336 336 337 339 340 342 344 346 343 342 344
324 325 322 321 321 322 335 343 348 347 348 341 337 337 337 338 335 333 333 332 332 333 333 334 336 338 340 341 342 342 342 342
327 324 320 320 320 325 338 343 347 349 345 338 339 337 336 334 333 332 328 326 326 327 331 333 334 335 336 336 336 338 339 340
326 322 326 320 319 333 342 343 342 343 341 339 336 331 327 324 326 326 325 322 321 321 322 328 333 333 333 333 333 333 333 333
328 325 319 321 320 320 334 342 342 341 335 330 327 325 324 321 319 318 319 320 320 320 321 324 329 325 323 322 322 322 323 324
323 328 328 322 319 318 329 342 335 331 329 327 326 328 324 319 317 316 319 320 319 319 320 321 322 321 321 319 319 319 321 322
321 322 326 324 325 323 328 331 328 329 327 326 324 322 319 317 317 317 318 318 319 319 318 319 318 319 317 316 316 317 317 319
319 322 324 323 324 327 323 321 325 322 320 322 320 318 317 316 314 316 317 318 317 316 315 315 315 315 313 313 313 314 314 314
324 324 320 318 319 319 318 321 320 321 319 320 319 317 315 315 314 314 316 316 315 314 313 312 312 312 310 310 311 311 311 311
322 322 320 318 316 317 317 315 315 317 318 315 315 314 315 314 313 312 313 314 314 312 311 310 310 310 308 308 308 308 308 308
318 319 319 319 316 315 317 316 314 313 314 313 314 313 314 312 312 312 313 313 313 311 310 309 309 308 307 307 306 306 306 306
317 316 315 316 317 315 315 315 313 312 312 314 314 312 312 311 312 313 312 312 312 310 309 309 307 306 306 305 305 305 305 305
317 316 316 316 317 315 314 313 312 310 312 312 313 312 312 311 311 312 312 311 310 310 309 308 307 306 306 305 304 304 304 304

GFSFLT2_925_thetae_093.txt.gz
Theta_e
322 320 319 321 320 320 330 332 336 349 352 350 354 352 351 351 351 349 348 346 347 346 347 347 347 350 348 348 347 346 345 346
324 322 319 319 320 326 324 340 340 348 356 354 357 356 352 350 349 347 345 345 346 346 347 347 346 348 351 349 347 346 346 346
325 323 321 323 326 323 322 327 336 347 350 351 352 351 352 347 348 345 346 346 344 346 346 345 346 346 349 351 350 349 348 348
324 324 324 321 322 323 326 329 339 343 349 345 347 346 346 346 345 345 345 347 345 345 346 345 345 347 349 350 350 350 349 349
324 323 321 323 321 322 320 322 345 348 346 345 345 344 345 344 341 343 343 343 346 346 346 346 346 346 346 346 346 346 347 349
325 324 321 324 325 322 319 324 335 340 352 347 346 345 345 345 342 340 342 341 340 341 343 343 344 346 345 344 346 345 343 344
321 321 322 324 325 320 321 325 337 344 349 348 344 343 344 342 340 340 340 339 339 339 339 340 341 342 345 345 345 344 343 343
325 325 322 321 320 321 336 345 345 345 348 343 339 340 341 337 336 338 337 337 337 336 337 338 338 339 342 342 343 343 343 342
327 324 322 319 319 318 335 344 344 346 342 338 340 340 338 334 332 333 332 332 333 334 335 334 335 336 336 338 340 340 340 340
327 324 326 319 320 323 345 344 341 340 339 339 338 336 333 330 328 327 326 323 322 323 330 332 333 333 332 332 331 332 333 333
329 327 323 321 320 322 322 345 340 339 337 333 327 326 324 325 324 323 321 320 319 322 325 324 323 322 322 322 323 323 323 323
328 331 332 324 323 323 329 345 339 337 330 327 327 329 324 320 320 320 318 318 320 321 321 321 320 320 319 318 319 318 319 319
326 327 328 324 323 321 327 333 331 330 328 327 326 322 318 315 318 317 317 318 319 320 318 318 318 319 316 315 314 314 315 317
316 321 326 321 322 321 320 323 328 327 326 323 321 319 316 314 316 317 316 315 316 314 314 315 316 316 313 312 311 312 312 313
321 322 319 318 318 317 319 320 321 322 323 321 320 317 315 316 317 316 314 313 313 313 312 311 312 313 311 309 309 309 310 310
319 320 319 317 316 315 319 318 319 320 321 320 319 318 316 313 313 314 313 312 312 311 310 308 309 309 308 308 308 307 306 307
316 318 318 317 315 315 314 315 317 317 319 319 317 316 314 312 312 312 312 312 311 310 309 307 307 307 306 306 306 306 306 305
317 315 313 315 315 315 314 314 313 314 313 313 314 312 312 310 311 311 311 311 309 309 308 307 306 306 305 305 305 304 303 302
315 315 314 314 312 313 313 312 311 312 313 313 313 312 312 310 311 311 311 311 310 310 309 307 306 306 305 304 304 304 302 302

GFSFLT2_925_thetae_096.txt.gz
Theta_e
320 319 318 318 318 319 327 330 343 346 345 347 352 352 352 352 349 349 347 347 347 346 345 345 345 347 347 346 344 343 345 347
323 320 318 319 318 323 321 335 342 338 350 345 358 355 352 353 350 348 347 345 345 344 344 345 345 346 347 347 346 345 346 346
322 322 320 322 322 320 321 328 335 339 342 348 350 353 353 350 347 346 347 347 346 347 346 346 345 347 350 348 347 347 346 345
322 321 321 323 321 320 324 327 331 334 338 345 348 350 347 347 347 345 344 344 345 346 346 346 346 347 348 348 347 347 347 346
322 322 320 322 322 320 317 327 341 337 337 346 347 347 346 346 344 345 345 346 343 345 345 345 345 345 346 347 346 346 347 347
322 323 320 324 323 323 318 323 329 336 345 350 348 346 346 344 343 344 344 345 346 345 345 345 345 345 345 346 344 343 343 345
321 321 321 322 320 319 318 319 330 332 343 345 345 344 345 343 341 342 343 342 342 344 343 343 345 346 345 345 345 342 343 341
325 323 323 320 320 324 324 339 344 341 346 339 341 342 342 340 340 340 341 340 339 340 340 341 342 344 345 344 344 343 342 342
326 322 320 318 321 321 322 339 341 344 339 341 343 342 338 335 337 338 338 338 338 337 336 335 337 338 338 340 341 341 340 340
325 322 324 317 319 322 335 342 340 339 341 341 340 334 333 331 331 332 330 328 330 333 332 326 326 328 329 333 334 333 331 333
326 324 322 321 322 324 324 341 339 339 340 333 331 329 329 326 324 323 323 324 325 324 322 322 322 324 325 324 323 324 324 325
324 329 330 321 322 322 327 338 338 336 332 331 333 334 328 322 321 320 322 324 322 321 320 320 318 321 321 318 318 317 318 319
325 326 325 323 320 321 327 327 333 331 329 330 328 325 319 320 319 320 321 320 320 319 317 316 317 318 315 314 313 313 315 317
316 321 326 320 321 325 320 321 327 327 327 325 321 318 317 316 318 316 316 315 316 315 314 315 315 316 312 311 311 312 312 313
317 319 317 317 318 318 319 323 324 323 324 323 320 318 317 317 316 314 313 312 313 314 312 312 312 313 311 309 309 309 310 310
318 318 318 317 316 317 319 321 322 322 322 321 320 317 318 317 315 313 311 311 311 311 310 309 309 309 308 308 307 307 307 306
317 317 317 316 315 314 317 319 320 321 321 320 318 317 316 315 314 312 311 311 311 310 309 308 307 306 306 306 306 306 305 304
319 314 314 314 314 314 316 316 317 317 318 319 317 315 315 314 313 312 311 311 309 308 307 306 305 305 305 305 305 304 302 302
315 314 312 313 312 312 313 313 313 314 314 314 314 314 313 311 311 312 311 311 311 310 309 307 305 304 304 304 304 302 301 301

GFSFLT2_925_thetae_099.txt.gz
Theta_e
322 323 324 323 326 330 338 339 346 351 349 346 353 354 353 350 353 352 351 347 348 349 349 349 346 348 349 349 348 347 347 349
324 324 321 323 324 326 328 341 345 346 352 347 360 358 356 355 353 351 350 348 349 347 347 346 347 346 348 349 348 348 347 349
325 327 326 325 325 327 327 332 337 340 345 350 355 356 357 357 354 352 350 350 350 347 346 345 346 344 347 348 348 348 346 346
326 324 323 327 326 327 329 332 333 335 339 349 351 353 353 354 352 351 350 349 350 348 347 345 344 344 348 350 348 348 349 347
327 327 325 328 326 326 326 332 335 334 335 346 348 352 350 350 349 349 349 348 349 349 348 347 345 344 345 347 348 345 346 348
325 327 326 329 325 324 326 329 330 335 340 350 350 351 348 349 348 348 349 349 349 348 348 348 347 346 346 345 344 342 342 344
325 325 324 324 322 329 324 329 331 330 343 348 350 348 347 345 346 348 348 347 348 349 348 348 348 347 346 344 345 343 341 341
328 325 325 323 323 328 332 326 328 341 340 343 346 345 345 345 345 346 346 345 346 346 345 345 346 346 346 345 344 344 342 341
329 326 324 326 324 326 332 335 339 344 344 346 346 346 345 343 342 343 343 342 342 341 339 341 343 344 344 344 343 343 342 342
333 327 331 324 325 328 335 344 344 344 343 344 344 342 340 339 339 339 338 337 336 330 328 330 334 336 337 340 340 340 339 339
334 330 327 323 325 326 328 337 342 342 341 340 337 334 333 335 336 334 331 329 327 325 324 324 326 328 328 328 331 332 332 333
332 333 331 325 324 323 326 341 340 338 338 336 336 343 335 328 329 329 326 325 322 322 321 322 321 321 322 320 320 321 321 322
330 331 328 324 324 323 334 332 338 338 334 337 339 336 330 329 328 327 324 321 320 319 317 317 318 318 318 319 317 316 316 317
324 327 327 324 325 328 326 327 333 332 329 327 327 328 326 326 325 321 319 317 316 315 315 314 315 315 314 313 313 313 314 315
325 327 323 322 323 322 323 326 330 330 326 325 326 325 324 322 322 320 318 318 317 315 314 314 314 315 314 312 311 311 312 312
325 322 322 322 321 322 323 325 326 326 324 323 324 322 320 320 321 320 319 317 316 315 314 313 312 311 311 310 310 310 310 310
324 321 320 319 319 318 324 325 325 324 322 321 320 320 319 317 316 317 316 315 315 315 313 311 310 309 308 308 309 309 308 308
326 320 321 320 318 316 322 324 324 323 321 320 318 318 318 317 315 314 313 313 313 313 312 310 308 307 307 307 307 307 307 306
321 318 317 317 317 316 316 318 320 321 321 320 319 320 319 317 316 315 313 312 312 311 311 309 308 307 307 306 305 305 305 304

GFSFLT2_925_thetae_102.txt.gz
Theta_e
326 325 327 331 336 335 338 341 343 346 345 348 349 353 352 350 350 353 351 350 349 349 351 351 351 351 351 351 352 352 351 352
324 325 325 326 327 334 336 341 343 344 345 346 356 355 354 351 353 353 351 349 349 349 350 350 350 352 351 351 352 351 351 351
327 325 325 326 326 327 329 333 335 340 342 351 353 355 356 352 352 353 352 351 350 349 350 351 351 351 349 352 353 352 351 349
327 327 327 328 326 327 328 331 333 336 343 352 354 356 356 355 353 352 350 351 352 349 349 351 351 348 349 348 351 352 351 351
328 328 328 328 328 329 328 328 331 333 333 349 353 356 356 357 357 356 353 352 351 352 350 349 347 345 344 349 352 351 352 351
328 328 328 329 329 329 329 329 329 331 331 350 352 355 356 355 353 355 354 353 353 353 351 351 349 346 344 343 343 349 350 351
326 326 326 329 329 328 330 329 329 328 331 333 348 353 355 353 351 352 352 352 352 351 351 351 350 349 347 344 345 344 345 345
327 328 328 328 327 328 330 330 328 330 332 341 347 350 353 352 350 351 352 351 352 351 350 350 350 349 348 347 346 344 342 342
326 328 329 330 328 328 330 334 334 331 334 345 350 351 351 351 350 350 349 349 350 351 350 350 350 349 349 347 345 344 341 342
327 330 331 329 329 330 330 334 341 342 344 346 348 347 347 346 347 346 345 342 339 337 336 337 343 346 347 345 346 345 344 342
329 329 328 327 328 329 330 336 341 345 344 344 345 343 342 340 340 341 339 335 331 331 328 329 333 336 341 340 340 339 339 339
328 328 331 330 326 326 327 338 337 341 342 343 340 348 344 338 338 334 331 328 326 323 323 323 324 327 328 327 330 329 330 332
325 325 327 329 326 326 333 335 335 338 339 340 342 340 339 336 334 328 325 323 322 320 319 320 320 320 320 320 320 322 323 326
326 326 328 329 328 332 333 329 333 336 333 332 333 335 336 330 326 322 319 318 317 317 316 317 318 319 319 318 319 320 323 324
329 331 328 328 330 330 330 330 333 335 329 331 333 333 332 325 322 319 318 316 315 315 315 316 317 316 316 316 319 319 320 321
328 326 326 325 326 330 331 331 331 331 328 328 331 329 329 323 321 319 318 317 317 316 315 315 315 315 316 316 316 317 318 318
328 325 324 324 324 327 330 330 330 329 328 324 326 324 321 320 320 321 319 319 318 317 315 314 313 312 313 314 315 315 315 315
328 326 327 325 322 323 327 329 329 328 326 320 320 319 318 319 316 317 317 318 318 317 315 313 312 312 312 312 313 313 313 313
326 323 324 322 321 320 323 325 326 327 326 325 322 320 320 318 318 320 317 316 316 317 316 314 313 312 311 311 311 311 311 310

GFSFLT2_925_thetae_105.txt.gz
Theta_e
327 329 332 334 339 339 345 348 352 350 351 353 351 351 352 354 354 351 351 346 348 347 349 350 349 350 350 352 353 353 353 353
326 326 327 330 332 336 338 344 350 345 350 355 353 352 351 352 354 355 352 349 349 348 348 347 349 350 351 351 352 351 351 350
327 326 327 327 329 330 334 335 337 341 346 351 355 353 354 353 351 354 353 351 350 351 350 349 350 350 351 351 353 352 351 350
330 327 325 327 326 328 330 334 333 335 354 351 350 350 352 352 351 353 353 351 349 348 350 354 352 352 353 356 352 351 351 351
330 329 327 327 329 328 327 328 331 333 345 350 352 354 354 353 353 354 355 351 349 348 351 355 355 356 354 354 353 354 353 353
331 332 330 330 327 328 329 331 330 331 337 351 350 355 357 357 355 354 354 354 354 353 350 352 352 352 353 351 347 347 347 353
329 329 329 330 328 327 330 330 331 331 331 333 347 351 356 357 357 359 358 355 354 355 355 352 352 351 349 348 347 344 344 348
332 327 328 328 330 331 329 329 329 329 330 336 349 352 356 356 354 355 355 355 355 354 353 353 353 352 351 350 349 346 346 347
330 325 327 328 328 328 328 328 329 330 330 343 347 350 354 355 352 353 355 353 354 352 352 352 352 352 351 350 348 348 347 346
330 327 331 329 329 330 331 331 333 337 334 345 346 350 351 350 350 350 349 351 350 348 348 348 351 351 351 350 350 348 348 345
331 327 331 330 330 331 331 336 343 342 340 342 350 349 347 345 345 347 344 340 337 336 337 334 339 346 349 349 348 348 347 347
331 334 330 335 331 328 329 331 335 337 344 345 346 349 348 343 340 339 334 332 329 327 326 325 327 332 336 335 337 337 340 340
326 330 331 331 328 326 332 336 334 339 341 341 345 344 344 340 336 331 327 325 323 320 321 322 323 326 323 324 325 328 330 333
328 333 336 329 330 335 335 332 333 337 338 338 336 338 334 330 327 324 321 320 319 319 319 319 320 320 320 321 322 324 327 328
331 334 331 330 331 332 331 331 333 336 335 335 335 332 329 324 322 319 317 317 317 318 319 318 316 318 318 319 320 323 324 326
328 328 328 328 330 332 332 331 332 333 332 331 328 325 323 323 320 319 318 317 315 316 316 316 316 316 316 317 318 320 321 322
328 326 326 326 327 330 332 332 331 331 330 326 322 321 320 321 321 320 319 318 318 316 315 314 315 315 314 316 317 318 318 318
330 330 328 327 325 326 328 331 330 329 328 324 321 321 319 318 318 317 319 318 317 315 316 314 314 312 313 314 314 314 315 316
328 326 326 325 323 323 324 326 328 329 326 323 321 320 320 319 319 318 316 316 318 318 315 314 314 313 312 312 312 313 313 312

GFSFLT2_925_thetae_108.txt.gz
Theta_e
329 330 333 335 338 338 346 346 347 356 352 352 348 350 351 352 349 347 348 344 347 347 347 347 352 351 350 356 356 355 354 352
328 328 329 332 333 336 336 351 354 352 350 363 357 356 358 356 353 350 346 347 350 349 347 345 351 348 348 355 354 355 354 353
327 327 327 327 330 332 333 336 341 357 356 356 352 355 354 358 353 351 347 346 352 351 351 348 346 348 351 355 355 354 354 354
331 328 327 327 327 330 332 337 336 339 352 347 352 353 352 351 354 351 350 352 351 350 353 352 351 353 348 354 354 353 350 351
332 332 328 326 327 327 326 329 335 333 348 346 344 350 354 352 355 358 356 356 353 352 348 346 347 344 350 349 352 353 353 353
331 334 333 332 326 327 329 327 328 329 353 352 354 351 351 354 357 358 358 356 354 353 351 347 341 338 348 345 353 350 347 350
330 330 330 332 332 331 328 329 330 331 335 350 350 351 351 356 358 360 359 357 355 353 354 356 350 350 355 353 351 352 351 352
330 330 330 330 329 332 329 328 329 331 332 344 353 356 355 358 362 360 357 355 357 357 355 355 355 353 351 350 350 350 346 344
329 328 327 330 329 330 331 330 329 329 340 336 349 356 352 355 357 359 358 358 358 355 354 355 354 354 352 353 351 350 349 347
331 330 334 331 332 333 330 330 337 342 343 346 354 342 332 350 353 354 355 351 350 351 353 353 351 352 352 352 351 349 349 349
329 328 329 333 334 333 332 336 339 340 338 336 344 344 349 347 346 346 340 337 335 334 334 337 340 351 351 351 350 350 349 347
334 329 335 336 332 329 329 334 337 340 342 337 344 350 350 345 339 334 331 329 329 328 327 330 333 342 345 346 347 347 347 346
329 332 337 333 331 328 331 339 337 338 340 344 348 343 335 332 329 326 326 324 322 323 323 323 327 331 328 329 330 334 340 342
333 336 338 329 334 334 335 335 334 338 336 339 341 337 331 328 325 323 321 321 321 320 320 321 323 325 324 325 327 329 330 332
332 334 333 333 335 332 329 331 335 336 337 333 327 327 325 323 320 319 318 319 319 319 318 319 320 321 321 323 325 326 327 328
333 330 328 329 329 331 331 334 334 334 330 326 324 322 321 320 319 318 317 317 317 317 317 316 316 317 318 320 321 322 323 324
328 331 330 327 329 330 332 331 333 331 327 325 322 322 321 320 320 320 319 318 314 314 315 316 315 315 316 317 319 319 319 320
331 327 332 328 326 327 332 332 331 330 328 325 323 321 319 319 318 319 319 318 316 316 314 314 311 312 314 315 316 316 317 317
331 328 328 327 324 324 325 331 329 328 327 325 322 321 320 319 318 318 318 318 317 315 313 313 314 311 311 312 313 314 314 312

GFSFLT2_925_thetae_111.txt.gz
Theta_e
325 325 328 334 341 336 348 348 344 356 354 356 350 347 347 344 342 343 347 346 348 347 348 348 348 353 355 354 350 350 352 353
325 326 326 333 331 333 336 353 356 354 350 359 352 352 349 346 341 342 344 343 346 346 348 349 348 352 356 353 350 349 353 353
328 326 326 326 327 329 329 333 347 359 354 349 346 349 350 351 347 344 343 342 341 344 347 348 350 351 353 355 353 352 355 352
330 328 325 324 324 326 329 330 332 339 349 342 343 348 348 345 348 348 344 342 341 346 347 346 347 349 353 352 350 355 351 354
329 329 330 326 324 324 323 321 324 331 345 345 344 339 348 346 350 351 349 342 349 351 347 348 348 349 349 352 353 353 351 355
329 332 332 332 331 328 324 322 323 325 354 346 342 344 343 337 339 351 348 343 351 349 348 348 345 347 346 350 348 352 353 352
328 330 330 329 330 330 330 328 328 337 351 351 347 347 348 343 347 351 348 348 350 349 347 345 342 341 342 341 342 344 351 352
328 328 329 330 331 330 330 331 327 344 351 344 346 351 349 347 355 355 353 352 351 350 349 342 341 342 342 337 339 348 349 348
330 329 329 329 333 332 332 338 344 354 353 348 342 341 345 340 348 351 350 348 352 351 353 352 344 339 347 344 345 350 348 348
330 330 333 334 330 331 339 341 340 344 351 342 339 337 341 346 347 342 339 336 337 339 340 346 353 348 350 348 349 349 347 347
331 329 330 334 332 331 335 341 338 343 338 344 342 343 343 339 334 334 333 331 331 330 331 335 341 351 350 349 350 349 348 349
332 336 334 335 331 329 327 342 339 341 343 344 342 345 347 335 330 328 325 324 325 326 327 330 333 342 348 349 349 349 348 347
333 334 337 332 331 331 331 340 339 336 340 338 338 336 331 327 324 323 322 322 322 322 323 325 329 336 333 332 334 342 347 346
331 334 334 329 332 337 333 330 337 337 337 335 331 328 324 323 321 320 320 320 320 320 321 323 325 328 327 328 331 334 338 339
332 333 329 329 330 327 327 335 335 331 328 325 325 324 321 320 319 318 318 318 318 318 318 321 322 324 324 325 327 327 328 331
331 330 330 328 331 330 332 332 330 328 325 323 323 321 320 318 317 317 317 317 316 315 316 316 318 320 321 322 324 326 327 326
330 326 326 329 331 332 333 330 329 326 324 322 321 320 319 317 319 319 317 314 315 315 316 316 316 316 318 318 317 320 321 322
331 326 329 328 328 332 332 331 328 326 324 322 320 318 319 318 318 317 316 315 314 314 311 311 314 315 316 316 317 317 317 319
329 328 325 325 325 330 331 330 328 325 324 322 321 319 318 318 318 318 317 314 313 313 313 313 310 310 313 314 314 314 313 315

GFSFLT2_925_thetae_114.txt.gz
Theta_e
330 333 345 346 345 341 344 346 349 354 350 350 348 345 343 343 343 342 343 346 345 345 345 346 347 350 349 348 348 346 346 346
328 324 339 336 334 334 334 351 351 355 351 355 352 351 345 343 343 341 345 346 345 346 347 346 347 349 349 347 348 348 346 348
323 323 322 323 324 324 327 339 344 353 351 348 348 349 351 346 342 340 345 346 345 346 347 347 348 350 351 351 350 349 347 351
325 323 326 321 323 321 324 327 328 340 335 342 345 344 348 350 349 340 343 344 343 346 347 348 350 352 353 352 351 349 349 352
327 325 326 328 327 324 319 316 320 323 325 342 339 339 343 343 347 349 343 341 342 345 346 348 349 352 354 353 352 350 349 352
326 326 328 330 328 327 320 319 320 321 330 344 350 350 350 352 337 344 348 341 340 345 347 347 348 349 352 352 352 352 352 352
327 325 329 329 329 329 327 331 326 332 350 349 353 346 343 345 343 346 347 344 347 346 346 346 346 348 349 350 349 348 350 351
326 325 326 330 333 343 343 343 349 351 353 346 345 343 343 347 345 342 342 341 349 346 346 343 344 344 345 349 349 348 345 348
326 327 325 332 337 343 343 348 349 351 347 341 341 346 348 347 344 341 341 339 338 345 344 343 343 343 342 343 341 340 347 348
326 325 331 332 331 339 343 343 343 346 338 337 343 342 339 338 337 339 339 336 334 333 335 337 342 342 342 342 340 344 346 345
326 326 331 334 331 332 336 343 342 344 343 338 338 339 335 332 330 329 330 329 330 330 333 334 338 343 343 344 343 345 344 345
329 334 330 333 330 330 330 340 338 340 339 339 338 342 338 328 325 325 323 323 324 326 330 335 336 344 347 347 348 347 347 347
332 333 334 331 328 328 332 335 336 338 336 334 336 334 328 323 322 321 321 321 322 324 324 327 332 335 335 337 336 342 347 347
330 332 330 327 329 333 330 328 335 335 332 332 328 324 323 321 321 320 319 319 321 321 322 326 330 331 328 329 333 338 342 343
326 328 324 325 327 325 325 332 330 331 327 325 323 322 320 320 319 318 318 317 318 319 320 323 325 326 326 327 332 334 334 335
326 327 326 327 324 331 328 330 327 325 323 320 322 320 319 318 318 317 316 316 316 316 317 317 320 322 324 326 328 328 327 327
324 326 325 326 328 331 330 326 324 322 320 318 319 319 318 318 318 316 315 315 315 315 316 316 317 318 318 321 323 324 323 322
324 321 322 324 326 330 329 326 323 321 320 319 317 316 318 318 317 316 314 313 312 313 314 314 315 316 317 317 317 319 321 320
325 320 323 325 330 330 328 325 323 321 320 318 318 317 317 316 316 316 315 315 314 314 313 311 312 313 314 314 315 314 315 314

GFSFLT2_925_thetae_117.txt.gz
Theta_e
341 342 342 346 344 338 345 344 350 355 352 345 346 345 342 340 342 344 344 344 344 343 344 344 346 346 345 345 345 346 346 346
328 342 342 340 336 342 339 348 350 351 352 351 351 347 343 343 342 343 343 345 343 343 344 345 345 347 346 345 345 344 345 346
323 326 342 324 326 324 330 335 341 349 346 344 345 347 344 343 342 343 343 346 344 343 344 345 346 347 347 347 346 345 346 345
326 322 322 324 322 319 324 327 328 333 326 339 346 345 348 347 347 341 342 343 344 344 345 345 345 346 348 348 347 345 346 346
327 322 323 328 327 324 314 314 319 321 324 348 348 352 351 347 344 346 343 345 343 344 346 345 346 347 348 349 348 347 347 347
332 325 324 330 328 326 319 325 324 320 345 351 345 349 343 346 346 344 345 343 342 343 345 347 347 349 349 350 350 349 349 348
327 326 325 328 339 341 338 338 328 343 352 349 349 344 345 341 343 344 345 345 346 342 345 347 348 349 351 352 351 350 350 349
324 326 329 341 341 341 344 347 349 350 349 340 345 344 345 344 341 340 342 344 344 344 345 346 347 347 350 350 350 351 351 350
325 324 329 332 338 342 343 346 345 342 341 340 344 341 340 340 341 340 340 339 340 341 340 342 342 342 343 346 348 348 349 349
324 323 331 332 332 340 343 342 342 339 340 341 340 335 333 332 332 333 329 334 334 335 337 341 342 342 342 342 343 344 346 346
326 326 329 334 331 332 334 343 339 342 337 338 338 335 333 328 328 327 327 326 328 329 330 333 339 343 344 343 343 341 344 345
325 330 332 331 330 328 330 343 335 338 340 340 338 340 336 327 325 324 323 323 323 326 328 331 337 340 343 344 345 345 344 344
327 328 329 330 328 329 333 331 334 336 334 333 334 331 327 324 322 321 321 321 323 324 325 327 331 338 339 341 343 336 341 345
325 328 327 326 328 331 328 327 334 334 331 330 328 325 323 322 321 320 320 320 322 322 323 326 329 331 330 330 333 339 341 343
323 324 322 324 326 324 325 332 333 330 326 326 325 322 320 320 319 318 318 318 319 322 322 324 326 329 329 328 330 331 336 336
324 324 325 325 325 328 329 329 327 324 321 321 321 320 320 318 318 316 316 316 317 317 318 319 321 324 326 327 327 330 330 328
322 323 324 324 326 329 326 324 322 320 319 319 319 319 318 318 316 316 315 315 315 316 316 316 317 318 320 323 324 323 323 324
324 321 321 323 325 326 325 324 320 319 318 317 315 314 315 314 315 314 314 313 313 313 313 314 314 315 316 317 320 320 317 316
321 319 320 322 327 327 325 322 320 319 318 316 315 316 315 315 316 314 314 312 312 311 310 312 313 313 313 314 314 315 313 313

GFSFLT2_925_thetae_120.txt.gz
Theta_e
340 342 343 344 343 337 342 343 347 349 350 342 345 342 342 344 343 344 343 342 342 341 341 341 342 344 344 343 344 343 346 348
337 341 340 339 338 340 338 350 350 345 351 349 346 346 342 340 342 343 344 342 342 341 341 341 343 344 344 344 344 343 343 345
324 335 340 332 337 326 332 336 342 343 335 345 349 344 343 342 341 340 344 343 343 342 342 342 343 344 344 344 344 344 343 344
326 321 320 324 323 320 329 327 328 329 326 347 349 350 345 346 341 339 343 344 343 342 342 343 344 345 345 345 345 344 343 344
327 325 321 327 326 319 313 314 320 322 326 344 345 345 345 343 345 341 344 345 344 342 343 343 344 345 346 346 345 345 344 344
328 326 322 327 327 323 318 319 319 319 351 349 345 346 344 343 344 343 343 345 342 343 343 344 345 345 346 347 345 346 345 345
325 327 324 327 338 342 343 339 327 341 350 347 346 345 345 341 340 344 346 346 343 343 343 344 345 345 345 346 348 348 347 346
322 325 333 341 339 340 345 348 346 346 345 341 342 341 341 343 341 341 342 343 346 344 345 346 347 347 349 350 349 349 348 348
321 322 330 331 336 342 342 342 341 342 342 343 341 340 339 337 335 336 336 337 341 342 342 342 343 345 345 347 349 349 349 349
324 323 332 329 332 338 341 341 338 340 341 341 337 334 332 331 331 331 331 332 331 331 332 338 341 342 343 344 346 346 346 347
323 324 327 333 332 334 337 342 338 339 338 337 335 333 333 329 327 327 326 325 325 326 329 332 335 340 342 342 343 344 343 343
324 327 335 329 329 329 332 339 337 339 337 337 339 337 335 327 325 324 323 323 324 326 327 328 332 338 342 343 344 344 344 342
324 325 326 326 327 328 337 333 335 334 333 332 333 331 326 324 323 321 321 322 324 325 325 327 331 339 342 342 340 342 339 337
322 326 327 325 328 331 325 327 335 332 328 328 327 325 323 322 321 319 319 319 321 322 323 327 329 330 330 330 332 336 337 342
320 321 318 321 324 323 324 330 332 327 325 326 324 323 321 321 319 317 317 318 319 319 319 323 326 328 327 326 329 334 336 336
323 320 324 323 325 326 329 330 325 323 324 323 322 321 320 319 317 316 316 316 317 317 317 317 321 323 324 326 326 327 326 325
320 320 322 322 322 328 326 324 322 320 319 319 319 320 319 318 316 314 314 315 315 314 314 314 316 319 322 323 324 323 323 321
322 319 319 320 324 326 325 324 321 319 318 317 316 315 315 314 314 314 313 313 313 313 314 314 314 315 316 320 318 317 315 315
320 318 319 322 326 325 324 322 320 318 317 315 315 315 313 313 313 313 311 311 310 310 311 312 312 312 312 313 314 312 313 316

GFSFLT2_925_thetae_123.txt.gz
Theta_e
342 344 343 345 343 340 344 344 346 347 350 348 346 346 347 347 348 346 346 344 344 345 345 346 346 347 346 346 346 346 347 348
343 343 339 344 341 347 344 348 346 343 349 353 355 354 348 348 348 346 345 344 343 344 344 345 346 346 346 347 346 346 347 349
340 345 345 344 345 339 338 341 343 343 342 351 354 353 351 345 346 347 345 346 345 342 343 345 345 345 346 347 347 346 346 348
329 325 324 335 338 341 341 338 339 339 338 347 349 349 349 347 345 343 344 346 345 343 344 344 345 345 345 346 347 347 347 348
332 329 326 331 330 325 323 325 333 332 334 348 348 348 348 350 348 345 346 346 345 344 344 345 345 345 346 347 347 347 347 348
331 332 328 331 336 330 325 329 330 327 341 352 350 349 347 346 348 347 348 347 345 347 346 345 346 346 347 348 346 348 348 348
327 329 327 339 342 345 341 343 332 334 347 351 348 347 345 343 345 347 349 348 348 349 347 347 347 347 347 348 346 346 348 347
326 327 329 339 337 338 346 346 346 347 348 344 343 343 343 339 339 341 341 341 347 346 345 346 348 348 348 346 345 348 347 348
326 327 330 334 334 334 342 345 346 350 347 345 344 340 338 338 336 337 336 335 336 337 341 347 346 344 349 350 349 348 349 350
327 329 332 332 335 339 340 342 341 341 346 342 338 335 333 332 332 332 331 331 330 329 331 334 338 341 345 346 348 347 347 347
328 328 328 332 336 341 340 342 342 342 340 338 337 336 334 330 328 328 327 327 327 326 328 330 334 338 341 342 344 346 345 345
333 332 328 332 331 331 334 341 341 341 341 339 338 345 339 328 326 326 324 324 324 326 327 329 332 335 340 341 343 343 344 342
331 332 330 328 330 331 339 335 339 340 340 341 341 338 329 325 324 323 323 322 323 324 324 326 330 337 338 339 337 339 342 341
331 333 330 330 330 335 333 332 336 335 333 334 331 328 326 324 323 324 323 321 321 322 322 325 328 330 329 329 332 336 337 338
327 327 326 328 329 328 329 335 336 333 330 329 329 327 324 323 322 321 321 320 320 321 321 322 324 325 324 323 327 329 332 332
329 327 325 328 328 328 331 335 333 331 329 328 327 325 325 323 320 320 319 319 319 320 319 319 322 324 323 324 326 327 326 326
329 327 326 328 328 331 332 330 329 328 327 327 325 325 323 321 318 318 319 317 317 316 315 316 318 319 319 321 325 324 322 322
326 329 329 328 328 331 331 330 328 326 324 323 323 324 322 320 319 318 318 316 315 315 314 314 313 315 315 317 316 315 315 316
327 324 326 326 329 331 330 329 325 323 324 323 321 321 319 318 317 314 315 314 314 313 314 314 313 312 311 311 311 315 314 311

GFSFLT2_925_thetae_126.txt.gz
Theta_e
337 337 335 337 341 335 341 342 346 347 345 350 349 351 350 346 349 351 349 347 344 344 346 348 349 349 349 349 351 349 347 348
341 342 341 342 338 338 338 349 350 344 344 347 355 356 351 347 348 350 349 348 345 344 346 348 348 349 349 349 350 349 347 348
342 343 341 345 345 340 342 347 351 348 343 348 356 355 354 349 349 349 349 348 347 345 345 347 347 348 348 349 349 350 348 348
332 331 334 339 341 341 342 346 341 345 343 349 353 353 352 349 346 347 348 347 347 344 346 346 347 347 348 349 349 350 348 348
331 332 332 333 334 334 337 337 342 338 343 350 352 352 352 351 349 347 346 347 348 347 345 346 347 349 349 349 349 350 350 349
332 335 332 334 334 335 333 334 335 335 335 353 353 353 351 352 352 350 349 349 349 348 346 346 348 349 351 350 350 350 351 350
328 329 330 331 333 337 334 336 338 335 337 352 353 349 346 344 345 350 350 351 350 348 347 346 346 348 350 347 351 351 351 352
328 327 330 333 334 335 337 339 340 341 341 348 349 344 343 342 341 342 341 341 343 348 348 348 349 350 350 348 347 351 347 349
328 328 327 330 333 333 333 337 339 339 346 348 349 345 340 341 339 338 337 335 336 337 339 343 346 348 349 351 353 349 352 350
327 327 331 331 335 335 336 337 339 339 345 348 346 340 338 336 336 336 335 333 332 331 333 338 343 346 345 348 352 353 352 351
327 325 323 326 328 335 335 335 337 340 346 344 340 340 339 333 330 331 330 329 330 329 329 332 336 340 344 346 347 349 350 351
327 327 327 330 334 334 337 336 340 343 345 344 343 351 343 331 328 329 328 328 329 330 332 331 332 336 343 344 345 347 348 346
326 328 327 331 332 334 335 336 340 340 341 341 343 343 334 329 330 328 327 326 328 328 330 328 331 337 337 338 338 340 345 345
326 327 327 330 332 335 337 337 336 340 339 341 337 333 331 329 328 329 328 327 327 328 332 330 328 331 330 330 331 336 340 336
325 326 332 331 330 332 332 334 338 338 335 335 334 333 332 328 329 327 325 325 324 326 329 330 329 327 326 326 329 331 333 335
328 325 327 329 330 330 331 334 337 334 333 332 333 331 330 327 327 327 324 324 324 325 326 327 328 327 325 324 326 328 327 323
327 327 329 330 329 330 333 337 336 333 332 331 330 329 328 327 324 323 325 325 322 322 325 325 323 323 324 324 324 322 322 321
324 326 326 328 330 332 336 336 333 332 330 327 328 328 326 327 324 324 323 322 321 320 319 319 320 320 320 320 319 320 321 320
327 329 328 330 330 334 334 333 331 329 327 328 328 327 327 326 324 321 320 319 319 319 320 319 318 317 317 318 321 317 314 312

GFSFLT2_925_thetae_129.txt.gz
Theta_e
330 328 331 335 337 343 338 342 347 354 354 353 350 350 348 348 347 350 349 347 345 343 344 346 346 347 349 350 354 353 351 350
331 333 335 336 344 340 333 343 353 352 354 347 353 356 353 351 349 348 350 349 347 344 344 345 346 347 349 350 353 353 351 350
333 336 335 335 337 337 339 345 354 356 352 342 356 356 353 350 349 353 351 351 349 344 343 345 346 347 349 350 352 353 351 348
335 332 334 334 337 343 344 347 347 346 350 348 354 355 352 349 346 350 349 351 349 345 343 345 347 348 348 349 351 352 351 350
333 333 334 334 337 338 339 344 347 346 346 345 350 353 353 351 346 345 348 349 349 349 348 347 347 349 348 349 350 351 352 351
334 334 334 337 335 335 336 348 340 340 342 350 351 354 355 354 350 344 350 350 351 351 351 348 349 349 351 350 351 351 352 352
331 331 332 333 334 334 333 333 335 340 340 353 354 353 350 348 351 352 351 351 355 351 351 349 349 352 352 353 352 353 353 353
329 328 327 328 329 330 331 334 339 340 341 354 351 348 347 346 346 346 345 344 345 346 349 349 347 348 353 354 354 355 352 352
330 328 330 330 328 328 333 333 336 338 352 350 352 348 347 344 342 341 339 338 338 338 339 343 346 348 350 354 354 351 354 353
328 328 331 329 332 332 333 334 335 340 337 349 351 345 341 340 340 337 335 336 334 335 338 341 344 346 347 346 353 355 353 353
328 327 325 323 327 329 329 331 329 333 335 347 345 342 340 337 337 336 333 332 334 334 334 337 338 342 347 350 351 353 353 354
327 326 326 325 333 331 329 329 329 334 336 343 345 353 346 338 337 336 334 334 336 336 335 336 334 340 346 349 349 350 351 350
327 327 325 331 332 330 328 336 340 339 340 343 346 346 340 338 337 335 336 335 336 337 335 332 333 343 346 345 344 346 349 347
325 326 325 330 330 326 339 337 339 337 342 345 343 338 337 337 337 336 336 335 335 335 335 335 332 331 334 333 336 340 342 339
326 331 333 330 328 329 330 333 335 340 340 343 340 337 336 336 335 335 334 332 332 334 334 333 333 333 328 327 329 332 331 331
327 324 325 326 327 327 328 331 333 336 336 335 335 335 334 334 332 331 332 330 330 331 333 332 332 331 328 325 327 327 326 325
328 325 325 328 327 325 329 331 334 335 335 334 334 333 332 332 331 329 330 329 329 329 330 329 328 328 328 326 326 325 323 323
326 325 329 327 328 328 329 334 335 335 334 332 331 331 329 330 329 329 329 327 326 327 327 327 326 325 324 326 326 325 324 323
325 324 326 328 328 329 332 334 334 333 331 330 329 329 329 328 326 326 327 326 325 324 324 323 323 322 324 324 319 318 319 317

GFSFLT2_925_thetae_132.txt.gz
Theta_e
328 327 326 329 336 338 348 348 351 352 353 352 350 349 350 349 355 353 350 349 342 347 349 348 349 348 353 356 356 354 353 354
332 330 330 332 335 338 340 343 347 357 350 352 350 348 354 348 348 349 353 351 348 345 347 348 350 349 349 356 357 356 354 353
331 336 338 342 341 338 336 341 356 360 357 348 354 353 353 351 350 351 351 351 351 349 345 348 347 350 349 354 357 357 355 353
331 332 335 338 337 333 344 349 352 349 354 344 349 351 348 346 352 352 351 350 349 347 348 347 348 349 350 352 355 355 354 352
329 334 337 336 334 333 337 335 353 351 351 345 342 350 350 345 343 350 350 346 346 346 348 351 350 352 350 352 353 354 354 352
329 333 336 338 336 337 337 339 341 342 341 338 344 354 355 342 349 352 347 345 345 345 350 352 352 354 349 350 353 354 354 353
327 331 331 333 332 337 339 338 340 338 339 352 341 351 353 354 351 354 350 351 352 350 347 352 353 353 354 353 346 356 354 354
329 327 327 329 331 330 335 334 342 342 340 340 339 348 349 348 350 349 345 345 344 351 342 349 350 352 357 355 356 357 357 359
331 329 329 329 331 329 331 335 341 342 346 339 338 336 348 345 343 341 340 339 339 341 345 348 349 349 349 354 356 357 357 356
329 328 329 328 330 330 332 332 333 342 345 336 337 343 344 341 342 340 338 338 336 338 340 344 347 345 345 346 352 353 355 354
326 327 326 325 330 331 332 332 329 331 342 337 343 344 342 339 339 339 338 337 338 338 338 339 340 344 340 343 349 351 352 354
326 326 326 330 332 330 328 328 339 337 340 344 339 351 348 340 338 338 337 338 339 338 338 336 335 340 348 348 349 351 352 353
326 326 325 332 331 331 329 338 340 337 331 337 346 347 342 339 339 338 336 338 338 337 335 333 336 345 347 347 346 348 350 348
326 327 326 331 330 331 337 334 335 339 335 342 339 339 340 339 339 338 337 337 336 336 336 334 334 337 334 334 338 341 342 341
326 326 335 331 330 328 328 330 329 333 336 339 329 332 339 338 337 337 335 335 336 335 335 334 333 331 330 330 334 334 333 333
328 327 326 326 328 327 327 327 328 329 334 339 339 337 337 336 336 335 334 334 334 334 333 333 332 330 328 328 329 330 329 328
329 328 328 326 326 327 326 327 328 329 334 336 335 336 335 335 335 332 332 332 332 332 332 332 332 331 330 329 328 326 325 324
326 332 331 329 328 327 328 329 330 331 336 335 335 335 332 333 331 331 331 331 331 331 330 329 328 328 330 329 328 328 328 326
329 326 326 326 328 322 323 325 329 334 336 333 332 332 331 331 330 329 329 329 328 328 327 326 325 327 323 321 324 325 324 322